GFSCGP_con_3kmhel_000.txt.gz
Helicity
3 17 29 16 18 40 58 57 34 19 51 29 40 99 56 13 25 36 23 5 18 41 63 97 123 138 130 158 155 177 181 176 164 154 152 155 164 148 112 68 33 6 35 36
26 51 10 23 31 33 34 35 3 30 43 71 91 115 12 17 39 22 19 11 3 10 50 62 97 135 166 156 167 187 180 183 172 174 197 203 186 155 117 77 37 7 7 14
36 45 10 32 52 23 26 39 27 42 48 22 32 44 35 68 24 36 -2 -6 10 19 18 24 41 67 113 138 157 167 200 197 196 223 207 184 161 127 77 35 11 27 8 -3
46 24 29 42 73 20 34 57 66 52 14 22 14 46 28 70 45 72 45 28 20 17 35 6 -12 19 30 62 124 176 197 202 206 202 198 158 129 101 83 88 88 66 65 44
88 63 61 85 64 40 54 36 76 71 94 68 124 49 100 76 74 108 112 62 59 47 51 43 3 34 45 87 105 118 146 178 201 184 132 112 85 66 66 88 108 99 81 81
56 38 61 78 28 56 30 26 39 82 89 78 139 69 82 132 98 83 111 100 94 81 82 73 91 102 89 87 88 117 160 177 181 181 144 121 112 98 112 126 124 117 99 124
50 73 72 48 21 56 24 25 54 65 115 81 181 40 17 87 88 91 92 97 107 101 97 78 103 121 125 140 173 196 204 189 187 197 198 184 179 190 183 185 175 184 183 185
86 76 68 58 76 37 55 32 67 84 99 76 84 73 97 74 81 62 76 89 82 73 88 73 71 113 126 134 158 200 221 200 223 255 256 270 237 207 211 200 213 193 205 187
60 76 64 84 38 13 88 66 90 86 120 105 82 88 100 4 88 106 81 118 100 79 77 68 62 99 126 118 144 218 227 257 298 286 301 265 247 225 196 175 155 172 156 158
61 19 77 64 26 56 52 77 53 76 80 127 140 71 83 71 27 49 37 107 128 99 80 86 103 97 125 143 151 228 255 303 316 319 281 266 228 182 154 135 167 160 146 123
35 38 58 36 67 41 70 78 60 73 111 140 144 160 263 106 -20 39 96 119 85 113 93 92 108 109 130 147 207 241 278 354 326 278 261 225 175 157 162 171 147 123 119 100
65 45 59 36 27 66 38 53 81 113 138 215 288 372 144 20 115 95 63 95 126 99 103 96 97 111 138 205 255 286 314 306 243 213 201 163 181 169 154 155 128 100 87 83
71 85 61 34 65 49 102 97 135 117 204 234 234 364 258 176 116 61 94 110 100 109 108 99 102 139 145 193 251 303 330 290 241 200 177 221 170 160 148 117 90 75 74 82
91 108 142 132 86 110 106 84 105 146 285 248 310 249 171 74 80 78 97 101 98 109 95 91 94 144 162 186 263 316 356 299 227 223 192 168 154 145 123 92 71 79 89 92
94 159 94 100 78 91 85 96 128 137 186 234 253 143 87 78 78 68 77 105 109 123 84 88 102 132 199 242 341 324 360 356 278 178 162 146 158 128 97 65 76 92 89 94
123 173 178 160 60 13 -7 166 110 67 88 113 164 186 168 84 68 94 125 133 203 139 99 124 101 149 186 278 329 394 315 259 170 152 138 181 150 118 90 71 95 93 87 79
158 188 117 181 106 142 136 107 121 140 198 197 175 125 80 84 123 214 173 136 147 109 222 135 99 145 229 302 313 264 245 174 155 124 171 170 136 113 89 83 103 90 76 70
196 187 169 204 160 167 215 156 81 115 120 71 95 100 79 152 248 279 126 58 147 266 202 100 154 196 296 250 232 228 203 139 124 166 167 143 114 107 87 103 94 82 75 84
120 211 214 179 163 116 0 58 149 156 184 108 113 161 223 160 130 98 60 212 269 252 111 155 207 197 220 219 196 218 132 97 151 159 141 113 113 105 98 92 85 70 90 89
191 202 238 255 217 181 273 42 146 162 165 209 188 159 101 94 243 194 106 304 249 96 100 234 223 180 163 182 200 101 69 122 150 147 116 102 92 93 87 82 71 81 95 90
211 228 273 262 337 295 124 199 166 231 209 179 81 92 98 139 139 102 287 180 110 67 121 277 217 143 154 162 90 57 106 145 153 126 103 100 96 85 91 72 79 89 88 60
201 251 354 322 385 338 173 214 183 197 119 96 95 80 121 134 143 202 230 116 31 125 223 191 145 133 134 82 83 92 129 161 123 94 101 93 83 93 79 74 87 82 66 -83
329 365 233 323 374 250 230 210 163 119 104 94 91 113 145 145 122 193 130 16 113 155 181 183 140 126 90 91 88 107 166 130 101 100 92 82 82 74 76 90 80 69 -67 -95
286 152 350 336 410 217 181 155 132 79 80 100 105 121 86 95 199 -32 -1 46 151 186 204 171 129 103 107 104 125 150 134 112 98 95 88 80 78 84 79 82 76 -36 -95 -96
282 372 497 300 202 167 95 85 78 76 81 89 74 126 92 125 -8 -16 50 152 187 198 203 150 110 101 111 132 139 130 117 103 97 91 82 78 81 83 71 66 72 -95 -98 -104
544 466 336 304 188 128 126 77 58 70 84 83 102 105 117 105 84 163 155 179 175 179 141 104 94 103 130 131 125 112 105 97 92 82 86 86 82 77 65 64 53 -87 -97 -66

GFSCGP_con_3kmhel_003.txt.gz
Helicity
8 17 14 -4 11 7 40 52 49 -15 12 22 40 55 17 -4 9 28 12 27 7 11 15 105 149 119 106 140 136 124 161 217 207 215 196 181 180 180 179 160 184 131 131 82
30 62 9 -2 21 23 40 42 4 18 2 34 68 36 29 105 79 88 82 82 62 57 64 86 78 97 86 80 114 126 155 209 198 195 181 176 175 174 140 163 176 115 114 78
29 93 19 29 37 12 -0 6 9 35 30 54 27 39 69 125 111 94 110 51 44 85 85 69 54 51 64 50 42 88 124 163 199 130 195 212 199 223 220 166 123 57 62 65
61 36 21 27 57 17 11 42 -2 38 34 -9 -19 -7 48 65 75 71 79 66 57 86 72 71 84 82 59 2 60 66 91 126 139 157 148 191 165 149 124 118 150 141 169 129
103 46 39 58 61 31 14 -12 25 44 14 -10 41 22 41 105 57 95 104 77 63 54 51 47 55 68 55 65 55 47 54 77 119 200 243 200 219 174 162 153 160 160 131 114
70 57 65 77 23 44 1 23 39 88 33 23 56 50 -12 83 132 104 86 104 101 87 80 79 72 87 81 116 101 90 99 100 152 175 247 224 190 202 211 235 234 219 189 230
73 113 84 63 22 64 24 29 45 68 90 52 159 56 16 52 170 111 93 93 102 118 88 91 98 93 84 112 147 162 135 139 153 247 246 236 199 204 221 223 225 261 257 198
66 80 100 71 87 51 35 45 103 114 87 46 25 148 86 117 148 127 113 69 73 55 177 128 108 93 84 87 137 146 192 192 157 204 261 279 280 307 255 254 247 210 194 166
66 84 76 71 89 34 115 54 126 110 66 118 59 78 77 37 148 190 66 55 105 222 93 78 96 82 107 132 144 132 159 151 187 207 260 400 408 299 304 278 253 226 212 153
67 19 80 79 45 48 24 71 87 113 95 121 151 82 66 101 70 90 116 187 138 49 77 128 95 125 144 114 95 168 142 124 172 220 418 462 357 298 221 258 225 194 174 146
38 46 55 21 52 49 91 78 117 111 102 156 150 162 241 66 -10 72 102 101 61 137 138 166 95 116 111 117 123 113 122 179 224 321 536 355 309 268 229 237 221 182 181 145
70 41 45 25 -2 38 12 31 97 119 118 161 168 173 43 61 96 103 81 85 84 95 142 119 135 118 111 91 137 148 213 202 250 475 421 329 277 280 249 222 211 176 119 104
61 67 42 56 81 57 52 47 82 102 136 212 194 333 162 97 7 23 61 78 110 160 138 131 140 121 144 86 198 179 248 260 382 356 409 377 342 327 209 197 133 115 101 76
64 62 77 90 56 54 63 16 11 54 202 258 258 219 145 56 25 39 61 105 138 130 173 142 154 165 88 90 160 227 266 331 333 346 383 382 316 201 204 148 125 103 84 76
68 85 54 64 47 48 44 76 80 53 52 121 207 111 84 50 50 78 125 173 198 114 126 144 233 110 84 109 173 234 295 328 350 341 338 262 173 203 121 112 119 101 93 92
97 172 131 124 46 21 48 93 69 1 33 60 66 87 40 57 90 136 227 205 140 93 116 163 158 109 86 130 187 259 297 378 211 251 231 175 222 131 110 138 114 97 105 92
127 246 230 214 73 154 124 74 37 85 71 85 136 102 87 130 204 214 150 109 117 135 97 160 134 80 138 181 243 218 258 223 250 344 185 172 121 113 131 104 96 101 101 102
210 255 222 231 136 148 119 93 71 135 99 77 72 99 256 287 149 67 125 84 185 91 135 169 116 88 224 198 224 278 271 285 297 148 155 103 117 122 92 107 99 101 101 86
62 228 254 227 154 130 91 -3 222 135 118 57 92 250 118 103 124 98 109 182 48 113 163 121 83 176 295 196 202 254 251 197 138 131 102 132 128 103 100 98 99 90 93 85
178 246 316 245 190 178 190 56 195 104 89 262 180 133 72 104 133 146 120 167 185 145 82 120 205 287 250 168 145 182 150 127 122 124 142 124 102 101 109 105 89 88 83 113
190 195 255 227 252 206 91 92 164 183 156 210 123 104 114 100 114 99 93 63 89 35 33 215 216 183 157 129 136 144 96 99 163 133 114 91 98 106 111 80 78 82 105 110
140 210 322 284 369 338 126 139 203 112 129 93 108 96 86 88 82 69 150 86 -20 12 108 116 109 175 195 142 131 98 101 228 158 119 108 101 108 106 86 77 84 95 81 88
203 193 241 250 311 183 112 96 46 104 99 120 68 76 81 51 67 88 99 87 29 127 115 116 169 191 139 151 121 107 197 148 126 107 105 107 98 82 84 83 90 80 75 83
250 136 211 222 231 119 128 74 57 67 107 75 92 72 95 72 71 82 103 66 112 159 137 162 180 164 169 145 129 132 139 114 103 110 109 93 82 84 63 91 86 82 60 -47
290 321 331 234 125 96 122 74 91 80 53 126 152 100 86 88 115 81 126 134 192 172 172 175 149 147 128 147 124 116 112 104 95 108 92 78 81 68 73 74 81 67 -30 -71
405 335 278 302 149 92 64 90 89 124 150 134 86 84 75 115 150 184 216 220 181 140 141 130 131 121 113 117 109 101 100 101 103 95 95 92 68 68 71 70 62 39 -60 -62

GFSCGP_con_3kmhel_006.txt.gz
Helicity
4 33 59 26 16 16 21 47 42 15 11 3 6 20 37 6 50 51 54 100 104 94 46 35 154 305 295 225 212 166 159 181 245 206 247 217 250 197 221 176 258 267 209 172
23 64 59 16 27 25 16 16 4 5 -5 4 57 41 11 112 145 79 74 88 94 90 100 157 180 185 195 164 125 149 117 152 236 194 198 161 180 185 224 224 274 312 192 202
20 103 27 21 31 12 -12 29 -1 20 23 40 5 41 63 149 166 94 64 66 85 90 81 124 127 127 175 169 153 103 119 124 190 221 128 198 249 213 279 311 320 295 185 179
72 68 18 13 37 53 -2 56 -5 16 -3 6 18 9 29 110 172 106 100 119 90 101 102 97 90 78 102 144 192 166 80 113 127 235 260 148 258 318 222 177 184 182 221 168
84 43 31 23 90 12 16 -2 51 61 32 23 40 44 75 84 103 121 141 196 162 139 151 139 134 125 134 133 157 194 149 110 110 153 275 353 294 288 271 251 250 275 292 325
51 48 63 69 18 19 21 12 32 47 72 33 40 83 28 25 94 141 172 234 254 199 188 156 119 144 193 150 167 165 199 168 167 192 199 348 415 356 333 288 347 395 376 374
29 149 124 33 19 27 60 41 27 68 95 67 129 90 136 -34 75 115 274 307 191 150 113 211 177 153 168 187 135 182 268 285 246 227 219 283 394 432 333 297 363 393 470 423
70 91 116 109 65 40 21 43 72 93 107 76 -3 44 37 35 102 158 167 130 77 70 121 147 129 103 139 218 194 154 166 194 247 275 311 373 406 461 429 388 402 514 439 342
81 104 98 83 57 43 66 65 104 138 95 146 90 22 -12 36 111 132 63 80 162 121 107 128 106 102 142 173 191 207 194 112 154 180 204 329 411 494 603 615 596 424 328 265
78 28 30 54 38 52 47 67 86 121 147 184 165 85 69 35 80 51 9 80 125 97 99 115 122 180 168 259 182 205 171 190 157 156 210 369 542 664 734 793 646 428 378 358
57 52 33 23 65 95 87 64 80 100 144 200 223 250 205 -35 -3 73 71 71 85 85 86 137 146 160 240 220 275 176 182 207 231 264 237 468 574 601 616 497 472 443 370 271
86 40 46 21 13 49 44 22 49 134 188 172 186 294 29 14 63 -67 32 57 29 123 150 198 202 135 178 283 228 93 189 239 300 299 433 529 539 484 416 420 383 350 192 125
75 58 45 62 107 86 109 40 19 59 152 236 260 375 229 92 89 68 50 105 160 171 251 270 230 159 294 209 75 119 162 249 355 459 498 493 389 325 333 369 342 190 136 142
66 51 65 81 62 70 87 51 -7 39 135 140 204 137 109 87 59 79 125 205 233 275 237 143 162 233 226 128 129 120 176 269 412 435 431 384 283 258 276 249 287 180 108 106
74 107 61 48 47 73 69 59 67 94 82 100 94 100 76 62 56 173 235 295 317 266 205 220 218 170 151 147 121 209 174 288 393 390 354 318 396 323 202 295 170 130 134 136
162 211 205 207 73 59 97 101 99 17 92 101 77 97 95 104 173 264 336 233 170 165 135 140 105 89 100 126 153 263 196 304 360 449 445 298 241 258 260 168 134 134 125 144
86 231 270 193 167 172 139 127 37 118 93 123 154 124 91 150 296 270 178 52 175 193 109 130 137 97 75 165 326 315 288 415 444 420 316 270 143 120 179 147 128 123 146 155
87 217 247 229 203 205 100 53 16 107 132 139 141 101 125 216 234 194 107 184 168 131 124 68 98 78 108 263 267 246 239 286 296 288 151 70 123 154 159 136 140 146 162 162
57 224 220 208 190 195 144 23 125 150 212 91 257 294 173 159 150 146 191 106 111 69 98 108 65 191 269 231 236 213 204 189 119 92 178 182 185 153 140 136 150 155 149 130
214 232 226 227 174 161 351 200 11 156 247 282 146 106 141 185 139 186 100 96 94 109 87 89 195 212 173 178 147 144 90 83 132 186 179 193 149 134 132 163 148 136 124 140
207 170 198 202 252 283 178 82 169 235 233 96 73 106 104 127 163 124 47 98 104 83 123 156 213 157 140 168 145 119 98 90 215 218 179 138 120 131 149 142 122 124 133 139
158 192 250 302 335 312 105 181 198 90 74 64 33 92 37 66 111 74 122 148 110 112 197 229 151 141 180 149 161 126 169 240 193 164 143 121 129 143 124 113 116 112 111 116
257 160 233 303 312 196 108 61 117 16 70 71 82 73 108 149 107 122 70 139 119 244 213 154 143 183 144 139 166 142 184 159 143 117 116 136 127 103 113 103 105 102 107 117
258 154 239 175 237 177 120 76 71 105 80 54 83 198 173 101 82 89 141 130 225 266 186 145 196 164 143 137 164 157 150 126 109 108 122 110 95 102 100 100 92 105 102 93
260 245 248 240 219 143 134 115 97 79 93 186 140 186 53 91 98 95 199 228 247 180 159 158 129 124 123 151 160 153 119 102 93 108 105 97 118 102 92 80 90 96 102 73
312 230 248 205 129 126 150 118 86 120 139 89 147 89 101 109 144 192 186 186 176 156 107 99 127 124 100 135 131 125 158 164 127 105 109 104 91 83 82 84 82 93 62 4

GFSCGP_con_3kmhel_009.txt.gz
Helicity
21 23 42 45 36 46 -17 8 -11 -23 -38 -71 2 64 66 13 145 153 174 202 247 299 258 173 249 270 313 294 265 243 245 185 220 234 238 217 228 194 192 212 240 291 248 190
-10 83 34 19 26 36 -33 -10 -31 17 -1 1 51 117 149 175 162 165 149 113 102 113 137 151 180 196 181 164 161 164 162 176 196 228 222 216 196 183 222 211 243 298 319 274
22 62 11 14 58 37 7 32 14 -6 14 79 4 28 133 221 212 167 144 132 113 118 122 126 139 126 123 116 138 191 162 164 214 232 252 243 229 230 274 276 292 319 341 297
44 32 35 26 86 66 29 22 -1 26 42 68 132 44 73 201 170 193 132 143 126 162 176 161 144 127 111 76 137 143 166 164 159 225 319 310 289 304 314 308 284 278 263 297
8 41 37 55 45 33 38 37 80 108 92 79 60 88 8 180 198 117 155 233 248 237 177 228 188 212 205 192 164 100 131 155 143 182 225 288 313 314 324 306 294 287 297 285
34 45 45 27 20 60 40 36 30 65 76 113 118 77 23 97 14 146 291 242 261 174 165 191 149 143 194 198 172 151 164 165 177 213 214 273 298 321 388 391 426 391 428 486
40 96 65 25 12 30 59 40 38 77 76 79 36 58 77 67 91 156 135 87 58 63 99 58 68 142 176 238 236 207 195 185 179 225 251 270 323 353 424 500 538 538 523 526
61 84 102 30 13 22 44 48 63 60 65 64 44 69 23 1 252 183 61 30 105 101 82 106 137 143 225 311 288 251 229 188 166 167 174 203 244 341 418 524 550 608 659 643
58 58 53 53 24 68 42 67 62 111 99 157 82 57 -39 86 23 -78 -6 75 84 71 125 144 138 180 196 234 218 243 176 192 172 167 183 145 140 252 433 581 689 757 745 773
40 30 48 14 36 65 58 40 79 81 92 105 148 194 166 44 -33 80 103 131 -64 -27 81 126 150 159 221 285 280 186 192 134 133 206 222 269 311 411 511 609 710 767 782 777
46 59 4 19 75 81 80 94 98 106 149 209 232 323 259 69 54 72 -4 2 40 203 275 288 257 232 249 190 136 124 122 72 148 193 282 351 402 425 458 523 512 489 417 258
25 37 32 64 28 28 143 151 73 128 165 195 257 346 123 100 76 58 61 176 147 188 202 244 254 232 156 67 95 115 78 129 155 251 372 470 458 425 399 361 340 342 252 184
30 54 43 32 76 112 116 3 -4 45 131 205 250 407 249 52 86 104 121 143 152 210 251 216 133 103 92 116 128 93 103 157 152 321 433 457 404 342 309 299 244 219 185 157
88 71 90 102 94 89 101 24 -13 63 176 187 257 137 77 75 95 145 220 234 183 209 199 182 55 16 113 109 102 119 139 132 163 336 371 347 304 298 310 315 308 230 138 114
95 113 106 113 105 89 69 66 117 138 119 118 106 82 70 58 107 186 253 179 122 138 122 74 47 49 102 92 110 146 173 173 185 312 448 544 539 420 355 304 261 176 129 114
133 145 170 151 103 83 125 155 186 120 87 94 96 78 111 137 184 253 182 77 69 130 120 121 95 103 101 100 150 222 261 238 257 369 398 443 437 410 369 235 119 107 107 120
136 169 205 136 184 191 131 79 82 120 56 104 167 210 272 202 165 119 144 37 127 133 132 103 99 128 106 169 235 245 207 210 266 302 301 275 228 205 43 -10 46 108 120 129
115 128 183 162 219 180 143 102 1 67 128 115 249 258 210 135 19 93 34 47 140 99 89 106 105 118 194 202 186 169 181 238 256 157 116 107 86 -13 61 124 127 130 143 132
114 163 146 166 198 197 216 52 106 89 47 213 266 194 -10 98 22 59 43 124 119 27 110 114 121 200 198 179 142 162 173 92 96 55 41 48 121 152 132 136 147 136 120 104
200 198 198 192 202 200 251 97 135 87 162 284 154 94 65 -9 91 105 130 92 80 138 125 144 197 237 213 153 167 154 126 118 112 128 199 194 167 144 156 150 131 115 122 115
183 189 163 178 225 214 156 88 130 172 192 85 80 69 116 107 147 163 102 18 132 110 139 236 211 178 165 238 232 173 169 186 175 159 145 133 135 150 149 126 115 111 105 106
198 177 209 219 303 205 172 95 139 128 100 68 115 115 125 113 174 -3 91 104 94 187 231 214 177 175 209 210 150 157 181 146 132 119 117 133 133 115 117 125 97 101 99 96
294 268 235 296 347 254 133 119 143 101 105 116 109 160 166 184 105 98 107 97 173 249 236 193 193 232 210 148 183 178 146 141 121 118 117 107 98 106 111 101 87 96 83 83
304 239 301 269 362 215 143 115 98 137 135 162 229 134 112 109 35 153 122 93 112 167 184 201 200 179 131 107 173 151 140 112 109 102 93 93 120 99 87 93 93 86 76 55
378 305 282 275 211 165 159 145 119 156 168 229 24 40 159 101 179 135 101 100 99 118 161 130 126 135 139 149 133 131 146 142 120 97 94 110 95 95 90 85 79 68 65 90
420 270 282 244 164 155 167 165 128 234 148 28 115 176 175 187 91 85 90 41 33 31 82 160 201 237 150 160 173 169 154 126 100 95 98 101 91 81 80 78 70 59 48 51

GFSCGP_con_3kmhel_012.txt.gz
Helicity
-0 -10 -6 14 11 -6 -42 -34 -19 -20 5 -65 16 47 75 72 188 170 153 220 264 264 186 165 257 316 342 283 225 164 195 151 211 203 207 205 205 197 207 222 238 230 197 188
23 36 10 9 31 43 23 30 25 21 -2 24 33 38 52 107 118 122 148 167 168 142 111 89 126 168 177 176 137 123 126 128 151 203 205 240 239 222 219 203 231 251 267 275
22 23 -4 1 13 -25 -3 53 26 43 36 41 47 66 40 77 135 135 135 94 95 106 112 93 81 91 134 128 107 101 114 128 114 159 205 230 271 280 269 236 256 289 305 341
14 22 21 32 55 16 -18 29 13 50 53 80 76 35 41 51 115 157 118 145 211 194 133 123 115 103 112 105 104 100 102 129 116 145 201 255 294 298 318 342 351 303 336 353
3 32 44 52 13 33 36 20 65 50 80 87 131 53 14 67 118 94 189 180 124 68 84 85 95 134 113 117 126 104 90 134 104 142 178 238 300 297 295 320 318 308 341 363
37 37 43 6 19 29 -9 25 33 50 77 87 52 24 91 93 61 178 129 45 61 84 72 71 114 129 151 140 129 136 173 138 121 116 155 227 263 270 312 284 325 344 406 508
61 81 32 17 16 38 51 24 52 94 67 40 24 15 159 28 119 102 46 26 32 43 39 61 89 114 177 234 243 263 268 175 137 125 195 160 205 242 246 246 292 376 594 693
53 48 53 8 -16 1 -2 -25 24 34 58 50 43 58 93 62 47 -96 -70 15 44 14 -20 52 152 189 266 314 287 216 206 166 152 188 165 162 190 194 201 208 245 399 533 665
39 11 24 41 14 41 21 36 44 67 88 113 56 45 30 56 19 -57 20 21 33 66 151 207 226 262 297 291 245 169 148 130 100 153 170 157 185 159 145 206 307 480 727 848
15 22 9 7 33 46 42 61 105 95 112 95 97 124 163 54 23 -22 88 -43 39 122 204 223 203 229 212 205 125 96 89 115 139 154 157 191 226 240 267 337 414 556 658 668
18 34 -3 32 63 76 78 108 114 89 125 152 177 212 159 55 56 92 -14 42 155 182 176 165 205 201 164 123 131 114 116 128 120 132 136 222 282 328 396 400 415 400 392 393
21 51 34 52 66 50 66 70 54 96 135 158 212 263 76 105 29 78 149 164 164 111 106 175 133 104 88 59 81 105 100 104 106 121 145 224 292 346 356 334 307 286 255 243
38 50 39 54 77 81 53 -1 53 71 134 191 227 234 102 33 93 195 208 188 151 130 147 117 37 54 72 105 108 108 123 128 106 115 160 226 257 272 303 317 294 245 186 134
92 80 90 88 85 95 70 59 100 192 213 229 204 163 95 81 263 270 231 192 168 131 151 163 8 76 110 86 97 130 144 146 115 103 159 238 298 319 331 314 256 219 206 175
96 103 103 127 105 108 106 83 111 122 144 184 146 114 73 203 209 205 164 113 110 81 53 64 54 84 101 85 126 124 183 171 153 199 285 365 429 448 459 422 394 309 175 103
104 101 128 61 108 134 138 135 113 64 57 98 126 101 188 166 190 176 123 82 24 10 5 108 104 94 129 120 121 156 169 167 166 212 277 348 386 370 358 242 153 24 30 80
114 133 163 144 157 116 53 22 76 103 92 111 135 109 99 148 105 37 30 -9 32 20 83 140 104 127 134 133 161 156 183 130 190 220 162 134 100 64 -64 -68 -43 -4 61 109
121 175 162 155 136 143 92 108 56 105 69 62 151 185 142 119 30 28 -1 -40 85 125 182 140 122 118 137 180 189 176 160 194 170 109 50 54 54 46 21 10 63 107 115 110
136 171 134 141 169 166 140 44 152 144 120 199 153 132 97 56 47 51 117 104 157 206 143 134 130 149 188 186 188 184 198 215 152 117 98 121 145 131 121 135 128 122 116 99
192 215 203 223 185 174 149 133 151 103 165 105 88 122 129 136 161 175 179 139 203 129 118 140 175 219 212 213 245 260 220 191 210 166 144 126 121 132 126 122 118 106 100 99
158 145 175 237 233 185 140 107 159 254 138 135 151 175 162 180 228 167 164 84 95 56 163 190 189 189 192 198 217 182 184 181 132 117 123 119 116 116 114 109 103 98 100 111
197 178 214 246 326 224 208 207 168 142 112 116 150 162 160 174 166 137 145 127 119 103 118 135 142 182 201 202 170 176 146 120 129 131 120 107 103 103 112 113 95 104 117 115
268 262 280 359 349 308 211 102 121 80 127 139 191 185 168 163 101 87 94 63 57 80 72 105 136 133 150 130 117 141 139 131 139 126 102 89 101 103 98 102 108 100 94 87
253 280 396 288 288 212 159 124 107 144 174 187 212 181 244 83 115 102 75 73 86 83 125 164 132 140 156 169 204 124 122 163 136 98 79 85 85 95 110 112 99 93 90 93
303 375 350 249 187 153 135 135 181 265 261 232 175 175 142 143 119 82 90 101 101 112 127 143 145 144 222 219 184 187 188 140 104 79 77 80 100 113 108 92 87 94 88 90
414 343 333 294 164 166 170 158 165 210 333 386 237 138 155 102 67 88 94 94 121 137 129 142 142 138 126 108 140 142 120 103 87 76 69 85 104 109 103 87 87 77 71 64

GFSCGP_con_3kmhel_015.txt.gz
Helicity
29 7 -13 -21 -21 -30 -27 -30 -12 -20 -1 -55 -7 39 24 -13 64 57 46 99 126 97 56 56 124 193 214 213 180 126 98 77 170 141 142 115 155 184 203 185 174 182 193 208
31 6 -4 13 18 16 -4 -7 -9 -4 0 8 9 47 73 73 62 44 64 75 106 135 123 85 65 66 99 135 123 105 66 67 141 159 157 137 149 170 237 259 233 227 236 248
10 3 30 -6 11 -10 -22 28 -21 18 36 46 2 40 81 52 66 86 88 105 94 84 64 14 6 28 73 94 89 74 95 119 127 135 156 168 188 188 229 247 291 295 324 304
29 40 37 46 10 -12 -13 23 44 -5 36 40 43 72 116 47 79 125 112 82 32 11 15 41 49 46 55 30 66 83 90 100 107 138 169 192 229 217 254 246 274 278 334 328
33 51 59 45 -4 4 7 18 25 58 72 68 51 91 82 98 99 100 101 19 25 44 27 15 32 30 25 65 82 120 137 141 145 151 149 166 192 222 249 230 224 228 249 292
57 50 51 17 3 2 2 35 39 65 68 65 65 70 98 112 44 33 54 62 36 36 31 51 73 103 136 192 230 246 239 240 257 199 146 132 151 199 205 194 173 176 221 230
52 69 35 31 22 36 38 40 41 65 67 40 63 74 115 119 145 118 65 38 94 90 93 91 128 159 223 271 295 276 265 241 207 162 133 124 148 146 155 175 206 194 201 233
62 52 50 26 11 13 19 15 33 46 72 47 67 98 98 127 117 33 12 61 83 96 57 130 232 270 258 262 256 217 200 178 145 138 149 181 170 176 182 187 193 180 239 364
46 18 15 12 3 20 27 40 21 54 73 97 75 46 44 155 97 -59 -75 -40 78 174 177 227 202 201 207 190 155 146 143 124 126 153 163 158 177 172 170 193 214 247 342 443
12 21 24 9 42 54 63 41 60 74 107 105 120 70 93 96 44 -10 -15 20 45 90 161 161 146 119 110 108 102 85 106 135 126 129 150 143 124 147 181 247 269 299 352 396
17 38 10 30 48 27 62 110 114 80 107 127 155 196 165 67 40 80 61 69 84 92 85 92 105 105 91 98 90 79 125 114 103 123 127 99 122 160 236 267 308 342 313 273
25 49 39 46 52 15 94 107 70 111 146 192 229 288 56 142 -1 57 83 111 114 101 109 72 35 61 76 58 70 81 95 89 74 89 77 55 89 173 256 259 237 236 229 216
39 58 55 79 48 41 96 80 77 125 222 262 278 192 93 39 77 104 87 118 151 176 202 170 134 112 145 131 124 90 77 57 52 53 58 90 112 182 222 275 286 283 289 233
73 70 84 89 70 42 28 76 107 165 231 231 255 165 112 101 149 115 117 131 145 147 100 110 99 136 185 158 106 80 63 68 72 91 104 139 170 225 262 338 378 415 358 237
90 69 78 91 80 90 80 83 68 150 189 196 138 114 107 132 111 103 117 125 90 70 55 98 140 160 188 156 99 92 82 92 108 118 126 175 251 339 456 543 472 336 189 113
104 88 87 68 64 67 63 91 154 79 79 125 102 136 96 140 120 110 100 64 60 28 59 118 164 173 192 155 106 106 128 140 165 142 140 160 209 193 138 140 41 -34 -127 -42
107 129 110 94 107 82 75 36 73 101 113 132 158 113 107 100 79 56 45 65 68 78 120 142 174 227 146 124 135 151 156 162 206 155 132 115 112 100 72 53 27 16 53 107
139 147 126 121 125 132 63 134 148 150 92 165 121 46 138 50 96 116 131 195 145 139 162 160 154 110 91 133 164 189 212 177 192 167 159 125 106 106 102 98 118 125 124 120
105 148 121 156 174 182 129 40 131 162 175 158 146 215 80 89 142 123 208 151 114 136 150 84 106 114 141 155 193 227 178 186 187 237 212 159 142 152 148 140 113 112 118 109
196 201 185 208 175 172 157 126 199 201 236 179 290 140 106 141 145 189 209 190 88 52 73 98 110 133 154 183 233 214 210 197 158 125 139 145 157 140 122 103 100 104 103 93
137 134 178 249 234 171 130 122 194 270 161 173 174 127 130 187 217 250 177 152 120 85 69 85 97 108 134 131 191 170 109 125 103 118 131 143 136 112 106 100 103 102 103 106
110 125 183 243 255 145 156 287 250 172 167 160 129 158 132 206 172 141 144 85 69 61 84 84 110 136 120 135 142 114 113 157 165 141 143 139 113 95 104 103 99 111 113 96
201 243 230 287 265 230 268 285 164 100 130 115 165 157 190 249 244 170 120 51 83 93 102 123 143 151 141 155 160 187 189 166 176 155 152 106 82 88 91 102 106 102 95 75
223 231 331 267 251 197 172 122 34 124 155 173 174 215 286 270 218 115 22 82 101 99 112 136 152 141 148 169 158 153 160 156 151 125 99 83 80 81 108 105 101 103 90 72
246 297 287 249 182 154 146 183 137 197 260 256 332 443 337 133 46 43 65 92 111 102 116 110 116 113 102 87 90 118 126 129 120 106 92 83 87 106 121 107 95 95 80 83
373 319 246 272 144 164 187 220 218 319 312 333 253 222 60 30 53 105 94 118 132 123 122 116 104 102 118 137 132 123 127 122 100 84 78 89 102 114 111 101 93 71 69 76

GFSCGP_con_3kmhel_018.txt.gz
Helicity
40 33 3 -2 -15 -18 -24 -28 -28 -8 -1 -32 -1 20 57 58 79 60 32 21 42 65 24 42 91 131 141 128 128 115 127 99 108 101 128 135 124 133 125 114 126 183 216 225
55 15 -4 12 12 -8 -14 -4 -2 5 7 -14 27 56 77 123 117 84 52 44 35 46 56 36 35 31 34 62 62 93 59 81 109 167 175 159 141 111 111 135 128 187 209 248
36 30 42 17 18 11 -14 -10 -5 -22 9 33 30 71 100 103 107 72 71 27 27 59 54 17 6 -19 -8 16 39 53 52 76 112 137 154 150 137 153 162 151 134 166 189 202
52 54 44 42 9 -13 -22 1 -9 -6 34 42 52 59 106 83 99 92 41 33 61 48 17 6 14 29 18 48 60 60 82 91 122 155 162 156 153 167 176 186 207 175 166 179
32 48 55 43 7 3 -35 -8 11 35 54 59 57 84 90 117 115 107 104 100 71 24 -1 22 37 57 96 106 123 150 197 226 227 213 176 130 116 148 183 196 162 143 149 160
47 40 53 25 14 17 11 39 57 61 60 81 65 79 91 150 195 145 154 133 76 41 48 82 99 130 168 186 190 199 219 205 206 168 117 64 81 118 135 104 135 153 163 139
58 64 41 48 40 33 50 58 52 70 93 58 46 86 153 254 177 158 164 119 56 84 150 169 150 199 207 220 208 192 190 157 80 38 62 115 142 109 97 129 153 145 159 188
66 54 60 38 26 24 33 44 65 74 84 71 56 90 161 256 257 120 5 -13 1 75 177 170 198 192 170 166 149 119 94 60 69 94 116 132 137 128 126 124 118 149 196 237
36 17 18 12 10 20 22 44 23 61 66 88 58 62 112 204 148 29 -24 -21 35 128 103 162 171 163 131 116 96 91 85 107 107 104 127 127 103 72 64 90 133 201 252 272
22 25 27 -2 33 62 62 39 54 65 67 52 91 61 74 239 154 42 -11 29 59 59 102 105 104 115 126 119 112 104 123 122 100 65 62 65 60 67 82 100 108 169 232 308
27 56 29 36 70 63 80 91 112 85 95 106 128 123 144 79 22 5 33 13 45 48 65 87 91 74 60 55 75 73 90 88 92 63 56 59 65 68 98 109 141 223 248 211
34 66 58 56 63 42 71 105 103 110 103 155 190 244 98 129 39 -17 17 48 94 81 83 84 97 92 85 106 115 151 106 87 83 62 65 67 65 58 99 126 172 200 233 267
29 61 63 71 104 95 104 85 97 97 140 161 211 182 104 103 52 97 101 102 83 66 62 64 65 80 120 152 154 133 120 87 60 75 71 47 48 61 122 210 275 327 366 353
94 93 97 92 63 57 58 105 146 151 188 199 247 170 103 85 114 112 77 78 63 61 60 113 126 120 137 149 159 153 107 90 103 115 106 89 91 149 259 337 378 423 405 276
116 103 108 103 71 76 81 80 111 181 204 198 146 161 141 150 168 55 99 74 89 93 95 82 81 89 100 144 93 91 103 134 143 141 147 146 142 156 176 190 179 154 71 45
118 112 120 97 48 74 84 107 133 103 131 126 95 133 137 176 131 95 74 38 46 90 92 74 57 84 108 104 66 82 113 132 153 128 162 143 137 123 83 83 72 74 61 58
148 160 159 90 70 48 68 89 60 71 93 159 171 136 172 213 110 54 24 38 87 78 100 54 82 99 79 51 82 110 136 136 155 171 172 149 155 123 123 121 119 128 118 114
196 225 167 145 99 74 40 125 113 133 84 134 133 167 180 114 31 -30 31 112 118 104 107 140 113 60 66 69 84 132 176 202 182 222 192 122 107 96 120 143 140 121 122 115
180 218 175 171 133 140 112 31 87 108 110 127 160 175 175 86 41 13 112 182 150 124 159 153 65 59 71 110 128 126 157 144 163 110 84 116 126 125 114 135 124 103 101 94
254 237 217 245 152 104 142 99 132 147 210 167 211 190 153 158 189 154 203 184 123 178 155 80 64 83 100 122 137 133 129 110 147 149 145 167 147 131 133 123 91 89 93 86
171 155 183 182 202 162 113 93 130 193 121 220 158 148 166 208 287 283 158 133 211 168 80 60 85 81 96 122 125 142 151 170 156 163 177 174 170 136 117 82 93 92 90 94
141 145 167 189 180 106 127 179 170 102 219 137 164 168 222 331 250 85 114 179 162 68 50 80 82 69 70 94 118 151 189 172 149 182 167 135 116 91 95 98 85 87 89 81
242 261 193 218 224 198 212 168 130 165 176 168 186 347 329 221 -9 55 144 121 57 50 83 93 89 109 104 116 118 138 127 117 139 136 120 99 96 92 95 92 79 76 76 85
232 189 207 227 218 176 155 89 100 168 162 228 321 362 160 162 216 226 174 72 79 90 106 136 126 111 114 125 107 118 151 149 132 118 108 97 92 83 89 100 86 87 92 87
294 228 197 204 146 169 117 109 168 214 303 267 217 256 106 238 181 75 86 81 74 88 129 163 143 144 133 134 138 156 150 135 130 118 110 97 89 90 93 97 90 93 89 92
257 233 219 219 137 182 201 306 251 354 301 378 368 137 210 134 137 112 108 93 90 112 158 169 160 151 141 151 155 162 138 137 135 119 110 95 89 96 98 96 93 76 81 71

GFSCGP_con_3kmhel_021.txt.gz
Helicity
56 34 10 8 -4 -11 -19 -22 -24 -19 10 21 33 27 104 105 135 133 79 57 35 35 21 7 17 58 79 68 72 71 76 75 81 82 81 93 87 72 69 70 75 69 94 94
52 33 10 17 16 2 -9 -11 0 5 12 14 48 77 78 149 170 144 126 119 103 80 78 60 48 33 11 21 27 37 68 91 75 84 109 114 101 81 70 52 68 63 96 113
45 27 26 12 28 16 -3 7 4 5 33 34 51 89 91 113 137 97 96 73 83 79 81 76 91 84 78 93 88 89 86 101 126 130 132 141 143 144 134 121 97 110 114 91
51 41 33 34 22 7 8 16 -11 -10 20 52 66 88 122 101 165 150 150 157 167 148 104 98 101 118 125 117 110 119 138 169 199 212 219 204 165 133 122 108 114 110 70 77
35 46 50 50 27 22 7 15 10 29 49 56 75 83 118 123 189 228 243 218 151 93 62 82 103 133 146 173 214 204 194 195 191 166 141 123 109 52 11 25 47 48 56 74
56 45 57 34 25 30 21 50 52 54 61 82 86 90 114 142 182 204 166 143 122 101 92 138 177 195 201 195 186 174 184 158 131 113 72 71 64 53 70 60 37 40 68 67
64 57 41 41 40 37 49 53 56 74 100 89 73 83 159 250 221 195 164 157 117 51 72 163 187 190 195 191 177 165 169 98 46 75 49 80 126 128 110 87 56 70 79 94
53 33 35 27 25 28 45 47 68 71 81 78 65 110 138 205 205 118 75 19 22 39 62 115 145 119 105 74 67 45 41 85 113 152 182 156 130 108 83 57 56 77 97 118
30 17 12 21 17 19 30 53 39 71 65 63 79 117 143 156 196 95 65 82 63 70 106 104 119 111 79 57 36 50 84 100 123 133 123 103 98 72 47 27 60 82 80 117
28 30 36 19 34 59 53 52 57 78 75 63 73 74 105 82 136 111 68 23 34 63 114 113 92 78 70 86 93 74 79 86 80 65 70 68 54 32 46 51 43 57 100 183
27 48 45 52 71 61 75 93 113 94 93 89 76 57 90 113 121 122 24 -45 12 57 56 34 37 44 38 35 54 53 58 73 74 56 66 72 89 60 22 18 82 138 169 178
23 56 40 71 76 72 90 105 102 101 86 114 157 157 77 119 85 60 -59 4 55 42 35 10 59 54 50 71 78 92 113 106 94 70 91 97 74 44 46 96 128 182 264 278
39 59 55 89 109 88 124 101 102 135 134 134 170 127 124 108 115 68 67 144 129 68 58 79 110 74 89 95 116 116 83 63 78 116 121 127 109 97 102 158 218 231 261 233
81 84 101 105 97 113 105 106 116 133 152 141 224 126 82 68 95 96 165 147 102 41 44 61 84 82 83 89 77 60 63 75 94 118 135 155 137 79 117 144 123 100 103 74
89 99 131 107 79 108 107 75 92 130 137 172 98 81 91 90 114 167 157 115 57 19 10 20 47 96 91 107 110 71 65 79 102 104 121 131 94 120 132 85 74 62 84 88
102 130 141 113 99 116 84 92 83 86 48 77 58 74 49 111 196 162 118 88 67 67 19 14 61 101 124 151 146 53 41 46 59 94 106 143 168 145 125 118 77 78 72 97
135 167 180 140 160 91 98 72 53 71 90 125 117 89 132 160 173 128 89 60 72 40 65 81 129 126 153 111 41 55 66 65 96 114 139 142 103 98 107 116 107 101 115 117
193 220 211 244 195 171 133 107 106 85 26 83 92 93 96 135 153 113 131 175 131 100 113 118 107 121 85 52 85 97 106 105 88 122 148 141 126 123 126 117 112 113 117 95
161 226 222 225 218 182 111 38 79 100 81 89 134 120 152 140 122 111 204 202 147 143 65 86 92 54 46 57 94 98 110 142 125 163 164 143 141 152 136 127 119 100 78 74
205 205 222 243 200 185 118 104 87 89 101 134 119 121 139 154 152 158 345 313 8 42 137 92 57 43 52 68 72 84 86 121 151 178 140 151 146 123 110 106 87 83 74 76
185 184 189 146 197 174 120 54 136 162 144 178 155 149 140 152 245 359 216 -25 80 110 115 72 60 67 69 59 76 91 105 110 98 117 125 113 110 97 94 90 86 81 79 88
145 157 157 195 168 80 91 123 129 137 142 89 111 131 146 264 320 223 70 81 93 57 66 78 78 86 83 92 117 113 108 115 122 130 121 108 100 90 87 84 81 82 82 78
201 180 170 209 238 180 116 140 133 124 134 140 145 299 285 274 183 184 110 93 46 106 117 103 106 114 107 101 119 114 108 137 144 136 120 107 94 85 79 74 86 84 80 77
240 227 197 190 219 166 119 104 180 242 271 261 233 172 258 219 139 87 65 61 96 76 92 104 123 134 112 108 127 118 136 153 143 129 120 105 90 79 74 88 93 88 80 85
261 215 192 196 125 82 81 211 195 233 208 131 150 135 76 52 -32 -5 51 41 50 76 86 118 131 141 118 122 125 131 141 145 129 126 114 107 96 82 83 93 86 86 94 93
287 227 221 217 123 152 207 207 203 164 33 34 64 57 65 53 54 58 56 69 66 52 80 119 121 131 123 139 125 125 131 135 124 112 117 111 91 87 88 88 74 80 87 89

GFSCGP_con_3kmhel_024.txt.gz
Helicity
50 15 34 36 40 32 12 6 9 14 31 47 45 58 86 127 151 134 110 90 75 85 94 82 74 62 61 71 57 58 84 138 121 116 102 100 104 103 101 95 105 83 85 78
9 32 37 35 25 13 6 -1 8 12 26 26 40 77 114 144 179 164 145 147 143 163 197 211 183 148 133 123 113 136 144 158 148 117 120 119 114 121 120 100 111 90 98 68
33 47 18 20 35 26 15 19 23 12 13 32 36 86 100 131 164 157 168 171 188 207 218 201 157 126 117 137 154 165 177 171 165 141 132 129 117 122 170 165 126 106 70 57
58 39 30 33 44 43 21 35 16 4 15 52 53 117 119 127 159 165 179 216 222 183 127 114 111 121 129 160 160 159 151 136 136 142 136 139 122 113 133 141 102 72 35 72
48 43 43 49 50 37 62 31 29 30 22 49 64 62 148 102 152 174 208 232 204 159 125 119 126 134 158 160 148 155 148 138 128 122 113 110 114 72 98 127 172 135 103 78
59 44 54 54 28 23 27 17 31 41 56 71 104 99 124 118 143 176 203 212 171 144 120 101 116 164 168 155 160 154 157 138 117 97 74 81 143 116 132 165 131 123 93 71
42 55 41 40 21 13 36 26 40 46 68 115 86 69 214 150 182 203 190 162 106 89 69 82 131 175 181 156 133 105 92 84 70 41 55 106 145 167 164 142 137 102 68 59
42 38 40 32 29 23 37 48 77 74 80 89 73 96 111 125 175 175 151 87 61 45 56 95 132 143 123 89 61 45 29 30 65 101 161 166 168 148 129 124 82 61 58 54
15 38 40 33 20 7 37 49 47 61 64 55 98 118 95 138 168 162 147 86 43 17 48 90 116 87 62 68 72 66 88 104 117 138 133 131 124 99 76 63 44 30 12 44
22 22 42 46 29 65 54 68 47 65 71 59 76 52 65 53 85 129 174 118 66 13 78 102 92 80 79 93 102 124 125 88 82 97 121 103 82 95 91 65 37 21 50 102
15 20 57 42 56 60 64 67 84 86 96 94 58 57 153 106 98 131 133 76 21 40 105 114 86 53 52 72 80 116 131 119 135 122 105 85 107 107 102 86 85 116 172 243
14 25 43 75 98 85 84 98 99 93 99 113 124 82 93 67 86 84 87 84 73 87 105 119 82 54 54 87 137 144 140 135 112 90 100 116 134 127 125 137 150 154 159 157
32 43 50 77 89 100 115 116 137 126 147 98 119 83 120 82 79 65 67 114 113 166 164 128 110 89 86 114 141 103 107 95 68 75 102 133 137 113 119 133 131 130 95 66
31 62 68 75 85 141 136 93 98 99 162 106 101 59 7 54 82 96 97 96 103 120 112 102 124 126 150 136 93 91 116 90 64 71 71 87 107 128 128 120 76 70 65 79
55 80 95 77 66 85 126 79 71 101 99 151 50 48 39 75 65 66 126 96 117 121 115 86 140 146 127 131 94 101 67 50 59 71 81 123 160 120 172 172 107 85 78 101
103 117 118 109 90 90 117 99 85 56 24 42 47 40 54 61 61 83 114 108 92 127 103 127 136 131 129 104 104 82 48 60 70 106 136 161 172 122 116 112 113 114 87 83
117 143 155 162 133 80 100 47 97 100 56 70 76 75 83 67 74 75 116 116 131 138 212 189 144 129 106 102 66 63 58 75 110 123 139 154 155 151 154 137 129 115 104 99
166 206 210 221 139 131 185 90 72 22 4 41 48 73 94 63 86 123 95 212 214 320 281 248 113 108 93 57 63 64 79 120 109 104 122 140 160 152 136 118 115 101 91 82
149 227 255 238 194 115 47 118 78 77 24 54 86 120 107 79 109 127 296 286 260 265 128 -40 52 78 83 66 80 83 98 91 123 97 106 122 119 102 96 92 86 84 83 83
211 200 223 225 193 172 139 117 58 45 44 174 129 102 76 83 158 194 300 277 227 -19 -57 57 62 92 96 94 110 121 98 105 115 96 94 112 104 88 84 85 78 83 75 85
232 239 210 161 187 140 88 79 131 117 186 129 89 121 150 161 283 288 160 130 23 -69 55 64 80 97 112 107 111 100 93 88 121 97 103 101 93 90 85 76 74 73 81 91
196 228 191 176 170 66 120 109 119 108 103 102 113 196 222 198 170 130 97 66 50 55 54 92 112 112 117 122 140 110 82 105 132 114 111 105 101 97 83 76 73 82 79 85
197 156 179 180 167 88 70 91 89 115 109 193 194 148 104 92 79 90 106 50 49 49 72 115 121 118 127 149 103 91 90 128 128 118 113 102 95 90 78 74 78 80 77 90
174 142 195 143 112 47 95 69 212 179 158 164 67 86 16 22 113 124 109 69 55 79 110 126 129 132 137 115 105 100 126 133 104 110 110 93 86 98 74 83 93 86 90 109
142 119 116 103 77 41 99 171 210 200 161 74 33 -17 53 97 92 114 99 64 90 108 121 140 141 126 109 114 110 103 125 118 92 109 97 77 89 81 76 81 83 81 89 127
124 94 151 172 152 154 218 265 197 140 74 75 53 89 70 91 107 103 68 88 105 122 119 122 123 136 124 112 101 117 132 132 91 104 76 82 77 78 82 72 68 122 119 111

GFSCGP_con_3kmhel_027.txt.gz
Helicity
6 54 40 107 64 88 72 33 20 47 51 41 47 76 79 78 85 109 110 108 108 149 226 290 243 182 100 84 77 141 140 230 140 140 169 152 138 160 132 143 236 151 151 143
12 40 44 33 35 34 28 22 35 26 37 47 45 93 91 106 166 163 149 147 142 141 164 189 181 174 164 143 138 119 147 164 166 199 210 153 134 144 149 112 238 160 178 100
54 80 34 29 30 35 36 53 50 46 26 8 4 111 102 117 124 138 152 154 169 167 179 200 182 155 131 143 146 163 181 180 188 179 169 151 110 130 157 192 111 92 147 118
56 42 34 35 42 58 36 63 28 13 5 5 42 39 165 149 163 162 187 179 174 170 179 160 134 121 117 120 143 170 187 181 154 141 149 118 111 133 154 106 168 212 130 146
48 36 36 37 68 52 95 38 24 20 18 13 65 27 209 139 141 171 191 179 179 181 158 135 108 93 108 132 162 167 161 139 125 110 105 106 109 110 81 119 178 108 139 151
71 46 66 78 31 30 26 11 16 22 36 60 22 52 145 98 173 189 157 178 193 181 139 104 87 74 114 135 138 106 85 84 90 86 84 78 67 77 80 99 127 158 146 125
30 58 47 41 16 23 11 21 38 30 54 46 141 46 153 224 263 235 159 139 163 148 107 85 77 74 93 106 122 92 93 89 93 77 63 84 80 106 128 162 177 144 119 105
27 41 17 18 24 13 13 15 48 65 97 79 75 66 166 152 130 129 130 141 117 109 74 49 48 61 108 128 96 58 57 67 102 132 151 154 168 189 177 169 153 126 99 91
11 40 31 29 23 13 41 50 49 38 53 60 38 138 119 109 91 76 118 115 147 99 59 74 93 115 126 126 102 98 86 107 141 133 128 137 123 108 92 118 117 106 94 80
21 19 20 36 21 38 26 54 32 65 75 73 61 59 67 124 87 112 66 114 111 69 76 104 100 126 127 110 98 86 84 107 115 121 143 122 117 100 123 147 136 155 174 266
17 -3 46 22 41 28 54 48 44 64 109 118 99 81 107 125 103 57 170 126 82 86 90 89 90 89 77 113 138 176 172 162 121 120 110 111 123 119 146 141 177 171 236 207
6 3 26 35 66 39 36 59 61 91 96 156 124 102 147 96 130 100 77 91 64 65 75 79 93 117 174 172 193 174 159 135 148 122 115 112 102 123 153 238 218 175 153 107
9 24 21 71 78 86 52 95 92 104 153 95 125 105 85 91 68 39 -0 97 96 98 62 97 156 177 178 190 204 197 168 155 116 87 83 89 105 172 158 149 124 133 91 72
27 36 43 58 63 81 113 93 89 132 181 96 84 39 15 37 56 76 106 115 132 116 121 123 163 181 215 207 264 165 138 111 88 81 78 99 196 135 186 186 179 138 117 108
51 52 60 59 49 69 108 99 90 73 98 127 46 22 14 44 126 140 92 99 79 105 160 216 276 285 145 294 156 119 101 85 88 79 92 158 156 106 98 101 97 92 95 116
72 94 93 86 100 109 125 82 39 40 48 69 67 50 71 63 77 75 52 89 138 190 240 236 275 258 287 162 99 94 103 89 79 107 162 224 157 144 139 125 106 131 126 121
94 105 113 138 157 124 167 149 114 99 83 91 67 41 37 82 109 162 163 174 224 306 128 214 231 218 117 77 121 111 92 81 130 133 148 146 123 152 156 151 135 110 100 90
116 124 165 164 149 165 218 69 53 77 60 48 37 62 134 89 184 122 163 210 231 215 201 151 90 39 87 92 65 94 105 104 123 153 194 192 161 115 96 119 108 116 88 86
91 136 161 175 174 165 42 195 127 100 10 43 115 156 92 123 118 78 225 206 151 122 57 34 -5 74 61 63 86 138 117 115 181 141 210 131 59 126 119 120 119 87 87 87
125 152 154 214 206 226 140 127 134 59 60 174 144 96 76 90 112 149 173 148 118 110 92 94 64 45 78 81 106 137 141 150 130 127 171 132 133 143 121 124 93 90 86 88
125 140 173 171 245 155 80 99 87 113 177 139 117 178 212 160 201 168 124 97 63 76 61 47 55 85 81 94 98 110 103 84 80 113 204 171 145 140 149 109 87 80 77 92
71 118 158 211 243 146 126 108 153 130 109 172 269 155 158 135 169 98 31 52 107 94 64 68 98 110 132 111 100 79 111 69 102 201 199 156 155 168 121 88 74 66 77 105
74 121 159 212 160 85 71 106 95 146 181 173 142 127 141 108 69 72 70 108 119 95 85 101 121 136 138 115 74 64 140 140 166 172 150 142 163 131 82 82 69 80 85 100
105 80 223 176 116 86 55 121 260 214 144 118 144 105 48 60 59 72 101 92 92 88 91 101 136 140 125 70 67 74 93 157 113 144 144 155 139 142 83 72 69 92 94 103
130 105 109 115 86 92 233 233 153 51 101 138 71 40 51 67 91 79 84 101 97 91 104 126 109 98 90 76 72 61 56 137 156 171 192 128 137 91 89 55 77 75 84 128
138 79 102 143 208 204 158 155 106 96 133 95 77 110 98 93 78 93 106 95 88 117 88 96 97 139 120 103 116 88 102 170 176 185 134 132 127 85 68 60 61 100 105 125

GFSCGP_con_3kmhel_030.txt.gz
Helicity
28 72 -4 96 112 92 128 118 33 44 91 35 3 7 123 62 23 53 81 79 140 214 224 281 334 405 413 319 268 251 283 242 263 208 207 239 306 306 258 240 227 231 219 192
24 24 81 72 61 57 66 81 28 68 69 13 15 12 152 107 149 110 177 255 286 295 289 252 257 337 273 214 201 208 190 188 201 224 191 158 177 169 139 119 143 139 192 251
47 138 39 61 32 50 16 60 99 74 46 14 -5 18 208 191 125 201 278 234 149 140 159 192 207 187 159 151 119 105 109 143 175 213 219 193 152 153 168 198 204 207 242 228
83 47 31 33 44 58 81 88 45 22 22 15 100 8 208 189 184 201 263 235 195 185 197 141 122 110 109 116 133 125 146 164 144 141 172 168 132 151 153 150 198 226 210 236
28 15 30 23 76 53 109 44 35 29 29 29 14 59 117 203 202 241 251 245 235 238 169 129 118 108 112 80 76 101 118 115 113 83 77 76 110 129 125 136 171 194 243 239
69 57 70 75 29 31 30 20 16 16 16 42 -7 -19 196 88 135 280 225 181 184 144 123 128 97 65 45 32 64 87 114 146 135 113 77 65 97 90 111 107 161 173 173 158
13 42 35 21 10 35 -2 20 36 56 36 50 76 81 110 241 230 202 289 162 116 116 139 145 132 130 115 86 55 72 94 92 111 149 172 205 219 207 169 163 153 175 136 92
26 31 10 13 18 4 6 4 30 43 58 60 25 49 194 223 277 230 175 141 105 94 72 79 117 117 156 164 154 136 139 123 130 164 183 256 242 155 152 139 160 142 144 145
34 35 33 25 10 11 21 47 39 42 60 54 34 118 188 165 128 73 88 74 164 96 117 84 149 161 174 150 113 120 115 93 151 194 207 173 147 167 150 165 168 149 164 200
22 18 5 15 16 12 11 21 38 73 74 82 34 57 90 69 75 40 36 42 170 114 106 130 137 151 130 136 147 183 244 244 264 250 221 173 150 149 144 140 176 257 228 176
40 -6 22 11 8 7 25 48 62 58 87 132 100 98 86 109 39 65 108 81 161 233 148 115 201 167 201 207 211 219 334 342 277 237 172 149 137 136 157 218 247 234 175 163
15 -1 10 51 40 27 30 47 54 112 99 148 185 155 59 97 122 152 118 116 129 115 75 139 207 237 226 179 209 272 390 428 278 155 133 133 137 150 203 187 200 150 150 137
20 19 10 93 68 54 56 107 109 138 242 145 147 124 28 152 139 92 40 35 21 27 62 157 169 197 224 236 297 404 488 277 139 117 151 117 124 230 213 189 212 160 157 145
36 38 30 55 56 74 93 115 110 125 242 193 143 43 -6 17 76 49 79 122 155 108 215 212 216 330 362 192 314 396 306 151 135 111 103 92 194 232 159 175 144 126 110 118
57 50 50 40 35 55 92 116 129 98 76 121 83 43 24 77 47 116 238 331 270 204 225 301 309 230 187 167 297 211 137 134 128 100 107 137 265 262 160 154 122 136 156 173
68 79 77 60 44 78 59 58 74 100 109 67 108 88 67 57 159 221 203 146 169 193 133 127 139 140 118 119 112 148 143 143 104 100 152 128 246 281 177 172 145 133 140 146
91 94 97 90 102 63 87 106 136 83 57 92 98 47 85 194 242 182 139 131 101 126 122 126 137 150 118 122 167 179 97 128 173 139 126 178 286 353 178 124 107 137 160 163
112 125 130 111 92 97 136 112 201 89 129 114 86 77 218 277 244 153 240 184 181 190 162 148 118 83 66 107 102 94 95 187 214 209 211 208 336 288 158 136 157 184 189 156
110 121 124 123 125 93 30 265 153 136 54 52 223 255 203 174 107 142 188 152 149 146 116 47 35 71 81 68 95 105 141 178 167 211 110 209 140 283 190 199 217 226 165 135
123 135 116 155 153 141 142 151 217 73 104 226 215 184 140 114 104 94 108 106 88 62 62 54 50 74 72 100 172 221 218 148 123 112 222 223 189 104 181 236 258 183 131 123
158 127 117 94 124 76 92 123 110 180 220 172 154 121 119 76 88 111 112 84 40 44 78 79 110 162 189 211 198 205 133 89 123 107 78 56 200 146 182 272 253 132 119 144
134 127 111 97 114 73 216 195 267 206 162 180 193 162 102 111 152 141 75 68 81 107 121 156 196 190 194 184 149 112 121 101 103 86 106 173 144 144 211 217 162 132 134 145
168 133 134 147 123 123 128 227 282 285 325 238 140 145 89 121 166 112 81 95 106 132 165 178 167 174 156 96 91 163 165 144 158 68 80 110 178 200 213 222 142 121 121 135
156 96 171 169 178 113 274 327 338 221 178 79 80 18 62 103 88 98 112 108 143 176 151 167 172 123 116 127 173 131 161 167 66 93 194 190 185 138 143 168 104 103 114 102
151 137 142 128 136 188 375 300 196 170 93 66 53 82 95 126 137 113 127 133 136 133 152 142 118 124 122 146 171 180 173 123 101 131 126 85 99 138 173 100 73 82 102 114
170 143 145 156 268 247 263 187 154 162 94 86 92 135 157 104 112 142 143 132 137 145 107 117 124 133 115 156 163 130 140 145 129 109 93 89 85 140 63 55 66 96 84 96

GFSCGP_con_3kmhel_033.txt.gz
Helicity
50 51 46 33 77 43 37 99 92 106 84 24 15 54 118 126 187 311 230 256 397 381 349 458 540 516 451 404 274 266 365 307 293 275 237 222 245 230 219 182 117 157 203 284
37 26 47 29 14 37 34 89 103 34 54 28 72 67 134 243 249 270 186 172 194 204 242 309 369 353 290 264 206 187 184 179 189 236 216 223 217 195 217 257 281 279 279 292
24 21 34 65 46 99 112 66 128 121 67 14 13 115 237 275 400 424 310 162 109 120 164 216 239 227 262 261 210 145 101 108 148 199 206 185 157 170 200 199 198 224 260 289
46 42 44 58 54 103 110 85 73 61 54 31 85 87 234 355 391 424 414 329 221 156 76 73 111 144 147 149 153 117 74 69 88 109 133 141 133 136 119 126 144 185 223 237
15 30 98 87 26 40 40 43 28 32 40 52 41 100 190 366 430 461 348 371 262 225 141 95 75 68 65 67 62 75 112 94 68 67 71 77 83 70 67 96 160 185 185 177
49 46 38 44 31 37 36 54 47 81 100 79 87 97 185 328 381 302 326 322 224 237 144 66 46 25 -13 -40 5 66 101 136 166 182 185 193 204 192 180 156 164 150 122 111
3 22 1 27 34 15 24 40 51 60 59 48 7 93 250 106 338 394 426 311 177 149 130 133 137 146 159 196 145 129 147 121 116 143 157 199 235 233 201 161 141 130 89 77
24 19 23 19 36 9 18 42 42 42 40 5 32 80 120 252 326 189 156 140 140 143 125 109 175 241 237 213 190 139 130 128 187 206 244 207 225 170 152 144 126 138 144 114
73 13 17 17 8 20 -2 34 35 52 41 47 54 41 120 124 113 86 97 93 89 115 120 139 177 193 183 205 197 209 236 233 269 364 364 264 223 163 120 152 215 194 173 132
82 20 -2 14 3 -11 9 9 36 28 42 32 26 86 82 87 66 14 61 88 159 64 116 161 194 219 248 282 238 258 284 329 365 425 341 236 148 118 158 172 173 145 118 106
89 18 -7 -3 3 16 11 21 30 54 125 126 121 78 56 128 228 164 173 117 98 144 159 208 242 203 196 253 266 373 362 361 338 394 231 159 123 147 175 160 148 138 125 162
38 9 22 29 10 8 24 54 75 126 99 140 177 118 80 139 218 179 121 155 135 124 117 162 168 167 272 279 280 241 298 345 295 273 150 119 141 202 185 184 163 115 108 139
23 24 36 34 33 14 18 82 115 178 275 254 243 79 28 60 36 43 119 72 193 287 313 368 412 320 257 226 209 193 210 244 233 164 151 141 159 224 209 206 168 49 82 108
60 47 57 49 71 87 78 70 95 150 240 238 230 169 66 100 15 159 238 265 280 252 218 166 121 110 184 183 161 170 214 198 148 146 133 100 171 222 243 221 146 76 72 87
56 71 68 63 56 59 79 69 60 66 116 215 119 123 198 209 187 218 258 262 208 148 119 104 64 66 123 111 121 166 157 124 123 180 146 115 227 320 320 270 200 104 134 157
85 68 77 64 110 115 76 37 72 80 169 189 168 147 151 152 207 241 168 149 124 73 18 51 94 112 122 108 120 122 142 122 144 190 157 180 259 345 264 264 199 119 123 191
76 86 82 63 95 80 122 102 114 109 135 203 242 211 217 257 187 157 139 103 56 30 68 118 115 129 146 106 86 113 153 128 190 203 152 141 172 329 319 274 211 131 164 229
98 112 112 95 103 124 100 122 251 190 202 173 286 375 350 296 121 92 58 73 88 110 163 151 154 148 90 109 157 218 194 201 228 189 195 210 168 246 247 158 163 158 226 204
105 136 147 144 135 97 118 194 153 180 192 163 229 215 209 165 81 83 91 132 128 144 128 113 87 122 143 162 185 170 152 113 86 131 136 115 87 106 125 183 233 96 192 189
184 160 166 177 186 128 143 208 153 188 217 196 204 192 163 88 77 91 117 107 114 153 144 117 110 155 174 162 125 101 108 134 161 158 169 103 41 72 101 99 37 129 143 214
181 168 163 184 174 98 84 108 144 227 181 268 218 163 135 120 90 104 93 104 159 125 126 149 169 163 157 112 119 120 158 178 193 162 129 88 56 113 104 43 132 173 195 192
153 166 146 172 168 109 106 203 209 244 323 296 199 144 171 157 100 119 102 138 140 158 166 169 187 184 137 104 132 157 150 187 175 125 40 51 72 94 89 174 201 153 171 137
208 140 135 177 135 99 185 253 369 325 304 240 186 199 199 131 135 151 165 169 154 137 137 167 165 123 104 125 126 151 175 195 150 74 64 92 101 76 89 122 136 129 101 74
190 174 216 235 126 239 372 425 408 343 287 176 149 192 154 166 160 154 177 163 135 147 160 123 106 122 118 115 110 130 172 188 145 90 66 95 86 66 106 126 113 69 68 66
130 170 202 225 239 315 337 323 262 241 174 101 118 152 175 199 170 200 163 138 153 149 117 114 114 112 105 106 104 122 183 201 139 96 72 86 80 115 114 76 41 61 51 62
176 181 219 189 178 242 217 231 205 154 107 117 171 222 181 212 185 159 149 163 148 122 118 112 103 96 112 124 112 135 183 156 113 84 67 91 90 90 62 34 49 69 62 59

GFSCGP_con_3kmhel_036.txt.gz
Helicity
72 27 48 44 29 18 2 18 79 59 4 18 57 96 107 165 270 306 352 470 445 520 511 529 497 509 443 444 322 221 233 226 181 176 194 259 267 300 323 366 415 413 389 372
53 41 43 44 28 43 42 71 100 99 61 50 92 178 174 196 271 336 352 360 345 441 453 443 415 395 295 262 197 149 150 181 158 120 119 130 153 174 196 230 259 249 237 254
12 30 35 60 85 74 125 114 104 75 68 54 90 158 224 285 331 339 321 303 269 209 199 211 233 205 196 175 156 154 110 69 78 95 108 126 114 120 123 128 126 162 191 197
60 66 53 63 65 67 67 89 97 96 76 42 89 122 211 318 367 344 329 286 199 179 168 135 142 193 198 168 152 118 77 80 99 104 85 68 62 69 53 71 72 112 140 138
59 47 79 79 37 38 25 46 40 40 63 56 102 145 170 296 360 356 344 243 123 2 -48 -2 81 65 25 35 66 82 90 94 88 72 57 65 71 39 111 162 157 135 129 135
32 12 26 20 28 59 57 59 75 89 111 100 116 115 188 323 348 321 280 218 175 96 42 49 15 12 18 44 59 83 75 68 102 110 123 141 163 158 168 182 188 156 138 121
70 57 42 47 52 57 63 48 41 61 68 41 35 64 129 155 238 328 271 211 142 62 59 50 57 59 37 79 100 101 107 144 163 202 225 227 200 236 222 217 182 157 136 117
40 37 48 61 37 15 31 22 36 34 37 23 72 106 102 112 289 240 187 150 96 47 86 68 72 111 147 160 144 154 216 250 270 276 270 255 252 229 213 184 158 170 127 85
36 39 30 28 35 14 10 7 9 22 4 51 58 89 59 123 177 147 131 103 20 -34 89 114 125 157 199 220 229 243 361 355 293 272 195 241 268 258 173 121 104 113 110 70
43 37 26 41 53 43 12 -8 -1 -6 31 41 99 141 110 84 70 74 157 147 136 198 77 107 160 214 245 270 285 305 284 241 221 232 245 247 221 166 123 129 139 122 92 51
70 36 31 21 4 -0 -1 8 24 47 66 93 116 165 122 190 156 196 219 170 176 198 200 216 297 367 303 246 196 184 206 254 271 229 197 165 146 112 124 123 121 116 86 74
91 37 23 12 -1 5 21 35 59 71 72 103 166 134 83 128 144 161 144 155 247 338 344 335 263 182 208 164 137 140 215 229 179 121 142 100 102 137 197 114 130 165 146 102
106 47 46 26 22 21 36 28 75 125 125 147 196 109 61 90 210 244 291 292 374 330 253 190 172 156 132 155 147 171 175 133 115 131 104 113 125 160 175 149 200 192 169 121
82 72 29 27 44 53 59 85 112 138 172 172 186 144 176 275 335 279 221 199 219 240 212 150 109 67 88 126 151 140 134 107 105 104 118 141 136 165 217 198 225 205 177 181
71 47 78 95 91 84 77 80 70 81 119 184 121 214 300 315 327 281 250 248 255 243 192 132 79 27 -7 110 122 127 133 132 136 132 145 145 160 169 186 164 170 167 188 308
97 58 100 95 114 115 82 54 99 110 115 152 263 312 285 297 279 268 240 211 168 123 86 22 17 40 133 160 178 132 124 155 187 189 188 179 176 182 186 152 167 115 295 205
78 89 101 70 118 116 97 118 109 142 143 148 204 271 295 259 214 185 166 121 77 32 -61 23 108 151 193 155 137 173 161 136 140 128 141 143 144 90 67 90 129 190 99 23
79 109 115 82 117 114 129 78 132 230 163 214 283 303 273 228 192 154 108 54 4 -8 79 179 190 188 163 153 167 143 111 85 97 135 101 86 60 42 54 83 138 118 109 62
99 118 124 117 119 118 149 171 153 157 121 178 227 231 207 160 138 124 106 38 19 92 185 182 157 138 134 126 90 93 94 95 123 138 110 80 62 60 123 150 106 111 64 56
183 169 152 155 152 112 118 159 172 164 128 136 212 209 183 148 161 65 49 87 149 190 167 142 117 123 134 110 86 121 118 174 176 117 82 48 41 65 111 96 72 29 108 171
150 153 147 188 158 128 89 166 128 209 97 152 185 202 188 138 73 107 162 183 183 170 183 161 163 143 121 117 126 145 173 179 150 124 80 33 48 57 89 114 60 162 194 151
107 137 129 193 202 117 108 226 205 123 194 213 244 222 173 144 129 178 228 232 205 197 165 137 125 129 110 112 127 132 135 145 159 137 97 80 60 89 112 106 137 148 145 118
154 137 127 165 134 123 131 153 222 285 290 270 259 218 191 190 190 262 264 213 183 160 125 118 143 127 112 101 102 113 110 140 170 158 127 73 74 91 98 124 155 136 101 68
127 198 190 228 160 173 224 290 291 310 294 287 254 218 192 189 236 252 213 189 174 136 134 134 132 128 116 95 91 98 104 139 183 169 114 59 77 86 155 126 109 81 65 64
119 171 185 218 245 298 272 247 255 285 270 256 196 185 194 244 241 204 196 184 146 139 143 136 133 129 120 99 76 95 125 144 146 138 105 80 88 90 97 100 52 41 40 53
171 175 197 182 148 207 163 212 261 264 224 159 172 222 263 218 204 192 177 138 141 150 137 141 131 132 117 83 89 104 122 135 112 118 114 96 100 107 92 55 60 57 48 49

GFSCGP_con_3kmhel_042.txt.gz
Helicity
87 82 63 38 20 46 47 48 61 36 37 37 26 18 59 121 128 139 178 239 289 302 252 274 261 256 313 361 435 343 309 251 197 119 75 85 65 46 76 84 90 96 104 125
103 112 59 38 35 48 49 71 45 76 95 56 53 65 68 119 122 123 187 278 331 344 323 275 266 259 261 221 135 115 83 65 30 22 15 32 30 51 55 40 65 92 115 116
21 57 47 50 73 82 74 68 35 39 109 127 82 95 95 130 148 187 223 229 229 186 146 114 121 96 16 -21 18 9 -12 -10 9 42 50 50 61 67 72 68 64 64 95 103
50 82 55 72 44 23 17 50 70 109 105 58 97 47 106 136 195 210 197 176 150 116 80 66 41 -12 11 -9 -39 -32 -26 -0 2 6 31 50 70 73 69 91 105 103 138 153
84 80 62 49 31 35 51 73 96 100 106 102 119 113 93 172 187 184 178 154 133 97 71 34 -14 -40 42 -0 -38 -16 23 41 43 57 67 67 65 82 91 123 140 139 167 187
100 85 60 39 51 59 46 84 117 97 80 73 112 129 68 137 138 195 184 151 103 80 41 18 -10 5 33 -14 -2 -1 34 71 71 89 99 108 119 129 161 155 139 158 173 165
126 100 79 69 72 75 76 92 72 71 102 59 83 96 65 60 72 166 120 89 73 80 59 13 39 53 41 227 102 76 86 81 122 142 166 188 198 179 171 147 147 161 158 131
74 76 76 79 69 41 70 68 46 -12 3 35 59 54 58 35 -7 124 130 84 58 12 -4 36 109 144 137 122 95 97 93 144 172 141 163 168 169 160 151 133 131 130 133 114
70 72 83 66 66 54 43 54 42 43 33 27 22 23 41 68 106 168 135 70 36 21 75 122 149 158 169 157 153 99 195 140 139 144 159 166 142 126 111 98 109 127 128 151
42 65 74 69 59 77 38 28 27 38 28 12 19 35 71 100 108 118 105 112 90 122 197 227 265 223 263 245 224 207 167 138 104 120 151 138 131 121 106 118 101 98 109 134
77 63 59 57 59 48 62 38 59 49 46 50 39 28 64 125 151 151 139 146 171 272 309 315 316 332 307 245 192 168 127 130 160 171 165 151 152 147 115 91 98 124 160 185
86 59 71 66 50 49 39 42 61 63 53 85 92 45 57 90 149 145 211 287 328 384 377 375 343 304 252 235 203 213 171 197 182 159 157 143 136 146 133 145 170 193 191 196
72 84 95 97 79 75 57 77 98 117 120 93 114 50 75 126 200 249 340 370 390 380 366 317 300 264 247 246 204 134 173 166 154 164 166 152 144 150 147 166 190 187 185 182
92 87 58 -16 29 63 67 94 111 136 122 103 118 123 121 138 220 275 322 346 350 326 298 278 264 264 213 137 164 177 188 189 164 146 125 112 118 120 126 136 140 142 144 170
71 66 88 94 97 76 63 73 104 121 130 124 87 118 102 168 216 272 298 302 295 276 259 230 242 237 156 176 211 219 172 114 107 107 104 103 100 113 132 131 116 114 140 161
97 62 93 77 120 129 63 60 106 133 154 117 133 99 126 155 251 271 273 276 256 228 209 206 187 150 191 205 182 145 109 94 98 91 92 95 127 137 128 120 115 130 131 124
100 99 100 64 114 113 14 96 165 194 206 201 196 127 201 212 232 263 261 246 220 184 163 154 151 151 189 181 129 109 86 88 93 101 103 127 135 126 119 115 118 127 122 119
97 128 132 83 109 92 79 107 87 141 150 203 183 154 180 217 234 231 221 205 175 160 166 149 115 124 165 140 124 107 118 116 126 120 121 118 130 134 127 131 115 101 94 95
110 120 132 115 103 102 76 114 149 160 104 170 177 199 237 240 257 160 165 192 196 184 147 106 135 175 167 153 124 127 136 143 139 123 120 134 149 156 145 141 123 110 109 112
146 162 156 168 148 102 70 89 121 168 156 124 206 199 193 243 230 147 171 210 194 196 183 178 184 174 166 133 113 139 141 135 136 126 121 141 170 183 152 142 117 123 135 152
132 143 148 206 179 133 81 135 170 202 73 90 121 144 207 191 179 178 208 269 242 271 257 218 201 159 112 104 132 149 139 139 121 119 121 137 177 180 147 129 127 131 136 145
94 111 109 175 194 119 115 198 133 86 107 88 91 151 224 309 248 249 280 326 239 271 250 207 154 117 101 114 142 142 141 121 122 122 134 155 167 161 153 122 123 146 123 133
122 123 127 131 112 97 24 92 105 124 138 136 162 201 244 273 285 302 317 211 193 255 211 141 123 110 109 128 150 149 129 127 126 136 129 124 133 136 134 140 144 133 125 115
95 147 177 161 97 102 84 82 107 140 142 158 194 250 271 290 310 350 218 196 267 208 147 122 117 123 133 134 143 139 130 136 138 124 116 128 132 128 127 133 118 112 101 77
101 133 130 124 86 128 89 104 135 168 201 257 293 283 291 360 372 179 126 233 190 140 119 119 132 134 128 132 141 139 132 128 124 120 107 117 120 136 145 143 119 99 80 83
171 173 179 141 99 124 93 108 147 195 206 236 287 329 354 340 143 220 257 179 125 116 128 138 139 132 130 136 145 138 123 121 108 106 112 109 119 134 125 114 87 65 66 52

GFSCGP_con_3kmhel_045.txt.gz
Helicity
83 49 54 36 29 14 19 40 20 25 45 56 44 22 46 73 96 85 95 98 103 104 96 109 108 109 131 179 196 194 170 128 150 87 50 -5 -7 33 59 71 83 97 108 117
89 69 70 52 35 44 50 37 41 57 75 32 22 35 28 53 80 73 86 106 123 152 155 133 103 58 33 44 80 114 113 54 21 10 -55 -33 9 39 63 70 70 66 79 93
59 41 73 74 61 64 90 42 38 31 84 87 47 30 35 64 88 104 129 138 136 124 127 98 70 56 19 19 18 11 -3 -7 -26 -53 6 37 59 67 54 71 102 145 162 151
72 71 51 46 42 22 14 50 54 52 30 24 54 37 43 88 115 145 163 139 127 109 104 82 51 52 7 -23 -39 -31 -39 -18 5 27 31 42 63 90 116 141 161 146 152 165
36 35 44 38 39 31 -10 38 64 52 68 52 70 37 71 116 139 180 169 128 104 79 75 53 44 70 39 -10 -32 -28 7 46 79 89 85 93 125 137 139 141 131 137 149 146
99 95 62 31 50 62 30 75 99 100 81 40 84 103 66 84 87 129 110 92 72 62 70 65 48 38 25 27 42 89 166 157 116 119 122 132 143 123 129 159 148 139 136 136
109 93 73 54 47 66 67 85 60 57 81 71 110 65 40 32 56 115 97 63 54 60 41 35 45 87 98 117 116 121 142 126 133 139 113 116 126 135 168 155 146 134 134 140
39 45 70 68 53 38 64 57 53 3 11 16 23 -0 13 25 26 40 84 88 66 41 41 59 68 93 98 81 116 143 171 158 131 124 108 129 147 175 150 116 112 114 114 107
68 70 85 92 63 67 45 57 59 55 32 19 15 -2 14 31 45 70 90 107 78 53 60 77 111 146 162 161 164 174 152 128 112 128 101 125 157 154 132 92 82 102 94 103
48 71 79 65 68 91 47 58 38 53 17 9 11 9 14 17 40 89 116 77 71 86 109 145 165 207 228 225 209 245 208 139 135 136 162 183 156 124 108 115 115 124 127 139
87 67 55 62 50 31 65 61 75 54 37 21 15 16 33 16 59 90 88 78 150 169 179 240 259 270 271 275 257 225 221 201 142 132 156 136 138 126 130 143 151 164 163 161
93 67 61 58 50 48 52 51 56 54 30 68 67 36 35 6 32 84 129 165 213 239 272 312 304 285 294 277 251 217 179 130 147 183 182 168 144 148 158 182 182 161 142 137
75 84 86 73 58 69 57 61 83 103 95 63 87 63 69 50 86 127 187 227 284 339 332 318 301 300 286 246 215 217 122 204 219 175 136 132 146 165 165 149 129 124 128 121
112 92 59 30 40 55 72 76 103 122 96 109 130 104 95 89 113 170 244 278 320 320 304 289 276 259 235 239 205 161 225 206 153 128 124 123 129 120 118 118 119 117 112 118
76 53 82 84 87 78 66 54 84 96 138 122 106 125 91 74 153 191 228 267 304 291 271 260 237 210 225 168 167 202 184 149 126 102 90 97 101 105 114 128 114 110 123 133
88 48 75 77 101 110 64 46 71 90 127 105 167 101 99 136 190 222 237 262 264 246 230 214 209 203 188 206 185 167 133 105 90 87 91 92 103 111 126 139 116 114 131 134
92 87 90 67 104 112 43 36 126 177 201 192 172 141 153 138 136 171 218 216 207 205 202 205 199 182 160 171 178 146 105 90 107 104 95 106 125 135 137 134 117 130 136 123
90 122 115 78 96 83 86 116 118 87 112 163 190 154 118 135 149 157 152 182 201 200 192 191 183 177 163 192 150 103 102 114 109 117 123 123 126 137 141 149 139 143 149 121
109 104 103 83 91 83 76 106 122 117 91 108 120 172 170 183 195 137 136 171 180 192 214 223 190 223 220 158 117 108 110 107 115 128 121 109 109 124 150 153 144 139 128 108
140 145 125 115 83 55 57 68 73 86 94 88 127 148 157 171 174 89 141 196 260 258 239 262 232 201 188 140 108 107 104 115 129 122 109 107 121 147 156 138 139 128 115 124
123 137 124 157 117 94 68 113 104 147 85 62 34 84 139 119 121 150 206 270 273 256 301 278 210 227 178 104 96 97 113 122 115 111 115 131 148 148 142 138 124 110 134 155
85 100 92 137 132 59 76 106 99 72 72 81 49 90 103 178 220 239 272 302 329 368 300 205 204 170 112 87 89 100 116 116 115 124 131 139 125 106 115 114 118 110 106 126
86 94 100 92 97 91 29 47 89 107 109 127 133 136 172 253 266 291 312 357 339 317 223 216 162 109 82 92 98 107 115 122 126 132 132 119 95 93 111 110 109 107 116 110
75 127 134 121 80 65 41 71 108 140 133 127 131 150 190 291 315 364 412 382 364 167 195 171 113 93 89 115 111 109 115 128 142 142 125 103 89 94 101 102 112 109 104 95
99 108 107 100 65 96 87 89 107 124 150 170 191 215 265 351 383 429 402 349 167 189 144 110 97 93 98 104 105 114 124 136 143 124 108 94 95 95 99 103 106 100 91 85
131 129 133 98 89 101 94 97 98 123 145 193 267 345 371 383 387 396 321 190 148 136 90 87 97 97 95 97 102 114 127 133 119 110 109 114 95 102 98 102 95 83 60 65

GFSCGP_con_3kmhel_048.txt.gz
Helicity
17 -4 20 -0 15 40 -9 -23 -1 21 36 16 -0 23 28 38 31 17 22 34 51 58 66 74 75 86 95 128 139 126 147 153 124 79 63 -7 -4 42 56 54 51 48 58 60
34 34 51 35 17 21 6 -12 30 31 24 19 26 45 39 46 50 36 47 47 57 68 81 70 79 80 81 76 84 88 84 49 11 -5 14 25 32 52 69 77 88 88 87 95
36 55 26 28 28 24 40 28 10 16 25 31 -7 -6 34 52 55 75 79 90 83 91 102 112 113 109 96 78 58 49 42 19 16 42 52 61 61 77 70 93 102 136 135 137
67 64 36 43 43 54 33 58 28 3 -16 -12 13 9 55 62 82 92 93 90 117 124 142 139 129 146 112 79 58 36 16 24 43 53 88 97 76 100 155 163 179 189 161 147
57 43 30 42 63 57 25 17 19 4 -4 -6 -3 -3 109 79 82 122 121 122 124 136 148 149 131 93 84 91 80 70 99 112 144 116 88 105 138 151 171 179 158 130 108 109
77 94 94 66 76 24 30 -6 8 1 11 -9 39 25 13 62 49 99 103 112 129 135 129 109 96 91 89 102 127 117 132 118 107 125 136 166 176 165 143 114 89 117 121 135
41 64 67 58 20 2 -49 -64 -11 -7 7 15 75 18 4 70 32 46 62 74 73 96 88 84 79 74 103 101 112 101 125 145 155 168 180 168 169 142 97 99 139 128 150 148
-3 27 34 45 27 -4 5 6 14 17 16 27 25 11 36 37 28 39 51 69 90 86 78 68 69 86 101 110 112 119 145 178 186 199 170 144 148 124 113 150 137 140 128 123
19 38 56 66 39 37 28 24 84 55 43 16 17 15 8 30 29 57 78 92 92 86 87 72 77 90 124 131 150 162 187 221 239 227 182 164 134 154 156 124 105 108 119 121
56 42 59 63 73 103 65 74 38 41 14 21 22 17 38 29 45 59 71 86 108 111 102 89 98 126 145 178 206 244 258 242 221 207 190 128 119 145 138 126 127 140 145 148
68 62 46 78 48 47 74 56 55 52 52 44 38 39 49 57 45 54 79 102 128 127 127 146 161 188 220 249 261 257 239 275 287 215 94 116 155 150 133 139 158 164 137 121
112 88 64 46 73 79 72 38 35 45 32 57 45 29 68 57 40 64 100 136 154 148 172 186 219 226 258 274 274 288 279 287 224 35 129 150 132 121 137 154 155 138 110 100
88 87 57 40 39 46 39 46 57 74 66 32 51 52 82 99 47 62 116 169 205 210 219 226 232 233 265 286 298 305 197 107 79 144 134 118 121 130 146 142 118 112 101 91
77 89 50 10 45 58 37 65 51 33 74 62 50 36 103 105 74 99 116 165 219 222 232 232 253 254 251 246 224 189 131 152 177 146 118 121 116 116 117 116 106 98 99 94
81 44 58 61 60 46 53 39 39 30 20 69 33 43 48 107 92 110 133 174 236 249 248 251 253 235 217 225 227 127 194 183 152 131 110 102 98 98 106 97 101 108 110 114
84 44 58 50 56 67 56 52 30 26 25 25 10 25 73 101 120 139 132 166 193 220 238 250 232 213 203 193 151 181 186 186 129 109 86 90 98 89 88 105 113 118 114 114
81 61 46 36 69 60 28 29 69 86 94 82 76 55 151 102 114 96 113 144 165 202 230 233 213 192 187 185 195 179 175 137 109 84 84 98 97 91 102 116 124 115 118 117
83 98 96 51 56 52 78 76 93 56 35 59 46 115 111 141 131 105 88 112 138 171 224 226 213 218 209 203 191 166 144 109 82 84 93 101 112 106 109 120 119 123 125 135
105 109 90 72 59 63 22 78 77 76 66 61 36 79 124 153 146 106 89 95 129 190 223 226 221 217 233 216 188 140 102 88 85 87 94 109 110 101 112 117 125 110 126 105
128 130 113 106 57 32 88 86 88 64 54 93 66 75 92 107 129 139 80 111 194 233 267 285 284 260 232 249 133 115 96 84 79 93 99 98 99 110 120 120 103 117 104 110
106 129 110 123 93 77 83 112 81 88 137 89 35 35 68 101 139 150 133 179 226 270 322 330 291 313 293 157 107 94 75 72 99 93 89 98 119 130 120 106 93 100 114 138
73 88 97 121 97 51 100 83 88 122 94 113 101 108 106 172 177 193 218 267 334 369 378 362 358 342 238 114 95 60 69 95 95 88 98 116 124 131 122 95 88 110 126 115
78 103 102 80 108 118 48 68 105 113 133 153 165 146 139 175 202 238 274 333 375 403 425 387 354 247 148 91 62 66 74 89 96 101 117 123 121 117 107 102 105 109 106 110
77 97 118 101 79 50 39 59 82 88 100 121 133 133 136 176 246 330 386 417 434 422 484 338 172 148 107 72 70 64 81 90 93 107 133 126 118 113 103 114 108 97 98 95
118 72 76 80 58 71 110 124 117 111 118 128 143 148 159 225 273 362 445 500 426 367 290 156 138 97 72 71 63 76 84 88 91 118 125 105 104 106 112 106 99 104 88 89
91 106 107 117 146 123 144 129 120 122 145 169 190 249 285 289 364 453 457 340 289 262 169 104 80 64 64 70 72 76 82 88 100 108 111 116 110 112 118 100 100 110 105 84

GFSCGP_con_3kmhel_054.txt.gz
Helicity
-55 12 20 28 39 41 48 -4 31 23 35 -17 11 53 84 1 28 -4 66 47 84 57 119 102 80 98 23 164 475 469 297 200 218 173 123 96 73 74 78 42 43 47 48 33
22 50 18 24 29 69 45 47 6 13 40 -31 4 70 50 43 3 47 72 89 111 110 147 64 104 80 145 347 480 271 223 184 123 47 32 65 89 70 91 137 120 125 84 57
14 49 78 54 24 42 32 93 96 0 33 4 -6 9 86 10 -7 54 124 116 112 147 118 105 116 135 275 361 311 206 177 79 6 20 126 108 103 156 176 156 102 111 79 97
18 12 152 102 22 29 44 -11 92 12 15 10 10 14 178 49 30 49 83 70 126 184 91 109 205 222 191 197 126 56 57 20 41 148 119 170 116 122 160 178 133 158 98 121
-37 57 71 32 7 60 7 24 39 2 17 45 -8 4 151 11 71 91 43 61 136 159 254 209 196 109 77 55 34 39 69 123 171 124 168 89 132 177 233 271 290 237 148 127
59 50 57 89 53 17 -13 -7 42 9 29 145 136 26 83 20 37 79 83 127 115 219 207 196 172 188 224 122 152 142 172 240 182 159 200 166 224 324 344 270 252 157 222 170
33 -11 -10 26 -16 32 7 -18 3 63 2 5 -8 62 42 -13 76 79 231 128 227 200 220 164 222 225 176 163 167 164 196 195 167 187 214 266 309 301 250 233 236 256 224 188
9 -4 67 38 16 62 64 -6 4 35 15 22 104 38 108 155 129 161 200 159 172 168 195 169 196 189 148 131 127 95 159 193 200 229 281 291 264 293 276 224 288 214 182 175
75 85 125 45 11 38 14 44 -6 10 30 -4 10 -2 95 110 91 94 126 140 158 180 176 138 176 180 173 135 127 101 171 246 296 353 337 304 301 259 204 187 188 208 195 195
54 -28 -8 3 24 27 30 44 22 16 29 22 16 19 173 92 82 56 90 104 140 171 163 126 195 195 212 197 173 151 203 366 514 400 402 336 310 185 108 216 188 201 203 190
43 288 -10 62 -18 2 21 -8 31 14 35 49 28 42 14 25 46 40 59 117 157 163 157 120 166 231 215 298 332 300 282 456 439 511 334 308 263 166 161 182 181 190 183 177
34 46 63 -12 -3 80 94 74 15 68 48 76 64 33 46 69 82 57 33 155 164 173 161 152 169 267 325 373 377 374 364 415 532 309 214 153 77 107 144 138 168 190 207 197
48 56 27 38 33 33 42 16 54 68 82 84 92 53 52 51 64 79 40 128 174 193 159 179 261 401 399 372 346 271 418 467 304 208 105 125 120 192 168 176 189 206 197 202
91 83 37 39 12 76 38 7 16 38 121 70 2 15 70 111 104 75 87 72 148 168 156 285 392 405 357 296 346 431 404 280 200 162 212 190 222 234 210 174 161 152 166 178
108 71 42 35 38 35 84 93 30 32 34 53 33 17 7 27 101 89 106 141 138 251 280 308 324 325 260 373 402 348 262 215 228 262 197 229 264 237 193 143 119 143 163 149
91 93 89 114 96 97 25 66 81 31 27 23 18 26 14 68 142 146 201 149 169 247 238 173 220 234 308 375 322 238 277 229 325 212 239 240 224 182 148 107 112 115 132 149
58 67 97 63 104 124 59 34 25 16 20 34 40 37 44 62 88 124 158 123 226 194 217 169 223 276 352 333 362 351 300 403 313 292 239 253 174 141 111 97 102 117 129 130
88 56 114 75 84 82 25 75 78 78 61 66 84 90 87 141 223 199 135 148 172 155 204 217 273 342 412 479 471 474 448 390 333 300 254 229 119 98 93 91 107 112 132 172
100 111 110 105 72 40 44 64 65 67 62 153 156 145 180 223 169 93 78 166 189 176 179 252 332 425 486 469 413 382 412 341 383 475 210 154 112 93 86 101 125 147 143 143
114 117 119 110 90 51 74 100 91 84 63 171 154 136 138 97 90 137 246 208 159 160 235 333 425 437 466 505 450 418 447 414 347 244 207 91 73 85 101 102 122 156 131 96
91 135 121 134 106 89 90 152 96 87 177 211 152 112 111 141 173 179 232 208 193 242 323 437 524 556 546 544 581 594 573 213 149 112 120 73 103 95 100 102 128 115 141 172
64 76 79 133 109 45 129 117 124 197 135 128 139 161 159 223 194 165 218 241 321 506 578 589 560 546 604 638 530 448 316 91 59 72 75 88 92 115 122 132 151 145 193 286
58 55 63 79 61 116 83 220 149 123 147 159 151 151 149 151 193 184 267 433 543 490 437 466 564 613 569 443 240 133 39 31 51 61 71 82 101 150 125 126 124 153 204 218
76 119 110 138 60 104 140 215 231 229 203 199 182 129 111 100 189 266 443 433 392 441 540 516 436 323 283 119 38 8 23 45 59 69 79 88 106 131 181 180 149 133 154 187
113 158 62 84 78 137 331 321 214 171 138 139 147 143 138 161 380 503 487 466 463 348 248 229 189 142 46 49 48 38 43 79 70 81 98 118 139 158 215 187 172 159 130 119
96 115 122 133 231 243 325 227 174 209 209 205 242 283 354 425 502 509 419 277 219 161 106 65 60 73 44 28 39 65 74 92 138 151 147 148 162 178 208 183 182 154 116 108

GFSCGP_con_3kmhel_057.txt.gz
Helicity
-24 -46 -7 -5 26 35 -9 16 91 20 19 103 67 136 130 100 159 132 55 99 74 117 126 154 158 210 266 415 466 422 370 297 315 254 210 155 109 75 53 70 98 102 85 95
-3 -31 -11 32 -1 22 -12 -6 106 95 -9 57 57 109 101 262 248 82 19 20 86 203 211 188 173 240 402 440 445 394 345 212 187 178 117 100 101 81 101 84 121 138 112 109
6 16 -22 -0 46 10 2 -15 46 108 64 -8 5 121 39 48 91 15 5 -4 184 321 261 205 197 260 377 432 408 338 245 151 115 85 86 116 142 153 153 143 157 145 136 102
4 -34 -6 -13 17 11 7 29 28 78 52 8 26 -22 -16 -13 116 92 35 113 254 322 298 220 293 307 302 273 218 186 83 63 64 74 111 172 130 169 146 159 135 135 101 65
12 21 39 70 91 9 -8 107 -1 5 11 -21 -39 81 17 53 -12 -9 118 161 242 280 284 296 258 196 190 164 133 112 69 91 63 5 167 159 144 220 273 301 245 220 191 193
-0 4 -22 -11 69 -10 6 -15 36 44 28 -13 27 169 52 32 112 39 89 116 232 322 382 366 285 234 147 112 140 78 63 104 197 240 236 236 310 358 411 369 322 274 280 321
40 17 22 24 -21 9 54 39 66 64 7 -56 -19 111 107 10 184 167 4 176 283 387 413 348 384 274 222 153 151 174 261 278 282 348 367 364 395 387 370 353 321 291 223 310
42 60 39 35 22 23 60 19 50 47 16 68 18 23 7 -30 32 118 97 170 259 346 313 352 369 343 287 251 248 289 300 310 298 316 345 360 390 361 318 280 374 332 218 243
54 52 56 85 53 17 42 41 28 31 46 54 15 20 68 186 125 133 108 260 335 333 343 362 390 370 270 224 193 225 269 282 298 336 358 342 291 284 346 367 407 271 180 214
98 110 102 9 -23 38 49 63 -8 49 35 13 19 33 8 197 91 88 172 225 236 275 278 306 368 359 285 196 138 137 221 391 451 441 442 358 331 330 257 239 153 176 212 212
174 59 16 149 3 -5 37 39 53 62 81 30 40 74 4 74 23 68 113 166 209 252 250 290 345 340 299 241 182 283 412 502 538 571 516 406 306 254 240 147 174 200 220 221
38 69 58 -61 -45 60 40 17 34 83 45 69 65 33 58 44 101 89 83 161 199 269 268 264 297 359 331 394 448 515 566 558 522 489 427 286 274 237 125 144 200 232 239 221
105 77 88 67 34 54 35 27 55 57 116 92 121 80 39 55 130 145 74 127 220 286 313 294 330 429 479 536 545 573 586 596 514 351 229 233 195 227 265 235 233 214 189 176
106 122 93 69 41 49 45 43 32 48 139 105 99 50 16 41 149 195 120 111 207 255 286 334 456 529 493 463 541 633 602 470 305 254 292 287 377 263 213 220 186 165 154 139
87 75 106 93 53 25 44 85 80 47 13 151 37 58 22 20 103 142 94 100 143 216 331 494 567 534 432 492 555 527 454 331 280 356 418 441 321 271 255 304 176 139 129 108
105 95 106 104 110 124 78 143 74 69 98 85 39 41 34 47 112 213 195 115 162 255 336 427 420 365 410 446 408 379 346 340 437 463 438 375 296 310 267 256 233 125 93 117
103 123 153 122 118 96 65 30 54 60 76 76 52 51 58 100 102 88 180 178 164 229 290 293 268 311 350 385 419 445 528 556 498 419 395 323 304 242 264 148 87 79 114 152
107 111 122 101 114 121 32 51 70 43 62 96 136 117 153 167 168 179 190 146 212 237 278 323 391 483 532 600 664 704 641 536 460 447 430 386 355 123 80 63 74 120 144 132
141 157 137 122 110 65 32 82 66 56 106 108 124 115 129 146 189 262 197 203 215 226 246 302 408 531 632 645 655 700 678 618 553 578 505 269 105 83 44 66 79 111 136 123
232 214 166 151 111 41 28 73 113 107 123 154 181 142 86 111 110 118 185 231 274 319 376 493 588 653 712 723 770 804 741 693 630 507 162 73 44 45 78 83 81 120 139 144
133 180 174 179 125 82 70 112 103 125 89 171 175 153 129 102 72 150 322 406 454 478 531 636 720 759 772 772 725 657 627 593 273 105 129 63 58 78 107 136 107 124 156 169
84 108 101 148 122 62 96 143 111 101 157 157 167 117 117 133 196 353 352 438 520 588 690 720 758 712 645 610 558 485 301 98 103 79 46 52 67 88 137 122 117 131 145 199
125 79 67 82 56 62 137 144 177 209 231 192 164 185 145 130 233 333 403 462 540 556 548 529 520 494 405 305 188 129 131 94 59 70 60 69 80 96 121 158 182 163 140 173
139 126 111 113 61 139 342 350 293 242 207 198 209 169 150 189 383 439 499 490 441 405 371 297 277 241 205 136 115 131 90 48 62 72 71 76 95 108 142 206 201 183 173 174
96 165 128 106 239 392 391 370 291 260 262 312 317 277 244 412 537 589 523 461 355 289 249 231 223 187 162 142 105 66 53 56 85 91 101 136 138 141 170 186 211 215 195 172
143 152 184 155 223 255 283 293 373 414 369 308 303 364 399 459 458 440 380 324 281 243 225 186 155 150 109 86 76 75 63 82 110 150 166 176 191 204 213 220 213 178 171 170

GFSCGP_con_3kmhel_060.txt.gz
Helicity
27 -8 -27 3 -7 38 -18 7 64 94 50 15 35 68 28 125 176 206 131 103 80 64 -6 -28 -10 33 136 137 166 160 209 205 249 259 248 228 198 138 102 91 141 139 111 134
-12 -24 -2 -7 -13 -24 8 60 172 179 -2 91 19 62 59 129 249 207 191 158 137 102 63 40 48 161 270 267 219 208 212 231 233 233 218 199 155 87 82 106 115 125 156 146
63 25 -14 -9 -28 1 74 60 107 35 19 57 64 123 21 3 89 102 129 200 223 303 336 285 267 310 319 312 278 275 235 228 191 190 249 211 189 177 164 153 154 136 131 121
50 7 45 13 17 46 53 5 -4 31 44 50 28 22 49 37 46 100 51 120 246 306 341 424 382 337 316 322 306 283 247 165 152 225 181 145 166 188 122 136 140 141 123 100
41 -6 -16 39 57 32 125 40 82 30 71 71 43 57 41 91 71 46 51 119 227 312 393 415 387 316 250 330 288 224 139 154 149 107 83 133 155 139 157 166 177 143 141 171
112 19 32 7 23 43 127 17 42 37 66 23 24 44 -28 60 188 174 122 141 243 287 363 374 312 287 267 224 233 169 140 60 65 80 128 148 204 212 255 261 256 288 352 273
48 46 26 21 43 1 21 2 41 49 64 -2 49 49 25 -17 36 60 161 167 198 337 418 408 388 286 245 214 177 142 144 129 121 174 172 239 335 338 378 355 390 349 366 385
19 36 51 21 -10 15 7 40 53 22 1 27 46 12 23 -5 3 37 126 203 260 331 369 375 389 250 268 208 130 177 190 249 271 331 369 430 452 447 402 443 402 316 274 246
25 56 75 40 47 22 38 29 45 66 53 63 36 51 36 30 15 11 108 183 232 279 327 373 363 299 223 187 205 232 285 290 325 363 375 395 398 374 406 389 332 322 163 126
26 72 44 54 44 52 53 51 54 133 30 30 29 33 -8 56 59 22 94 152 219 252 305 327 294 278 226 231 217 251 279 312 315 336 324 304 300 351 264 348 385 195 244 200
150 84 71 97 78 48 99 60 57 51 60 39 22 27 20 37 14 37 19 87 194 258 306 309 301 286 273 243 280 267 318 370 371 371 358 355 364 451 254 213 136 192 241 219
128 136 99 43 12 14 27 5 67 86 50 83 76 43 54 29 49 67 77 116 157 221 249 277 294 335 322 291 327 341 432 497 570 569 535 500 521 529 168 231 315 165 201 195
94 82 97 120 60 40 34 -4 74 113 140 94 103 60 84 62 33 83 136 174 185 231 296 343 370 387 383 432 482 549 561 622 669 606 600 546 247 283 298 326 310 167 231 186
181 138 83 90 57 85 69 61 59 86 112 105 133 100 104 79 65 57 110 148 167 230 321 413 387 433 502 599 674 698 571 586 514 454 411 375 346 325 356 254 213 245 216 222
152 90 80 74 104 108 114 135 146 89 75 97 58 99 39 40 29 70 136 131 151 213 312 413 543 659 717 678 654 590 531 448 412 477 459 404 394 427 343 302 244 387 247 124
133 70 67 83 140 97 68 119 150 128 100 73 97 95 72 69 74 66 116 166 174 240 355 519 595 573 556 551 523 449 384 477 501 459 417 411 410 351 368 421 269 173 80 67
145 120 129 79 146 143 115 86 96 111 83 72 83 86 62 210 243 189 187 190 163 225 361 472 449 448 388 362 373 412 480 515 522 485 463 455 476 482 391 180 135 103 79 102
153 166 132 72 148 130 73 66 57 122 134 120 172 162 213 247 251 282 216 166 171 239 290 334 345 368 375 432 482 554 567 578 576 558 571 509 400 384 193 164 108 68 87 102
145 173 146 127 117 99 66 50 92 106 130 106 125 141 149 174 297 270 255 198 206 251 319 362 375 413 457 528 586 625 653 666 621 550 478 472 413 203 181 145 95 80 93 110
230 187 152 156 117 68 15 49 110 145 154 152 104 89 85 112 158 103 154 220 338 382 392 451 487 568 699 685 719 720 630 562 499 459 411 186 194 138 112 102 107 102 109 109
219 229 187 221 159 113 53 67 95 158 90 141 149 120 95 122 69 103 203 362 394 436 502 557 635 649 624 607 580 530 436 411 349 277 193 175 116 100 71 106 111 119 128 133
174 159 153 190 184 88 84 146 135 88 141 143 153 118 190 156 190 231 321 373 407 463 492 509 545 495 425 385 357 361 375 251 194 187 160 122 81 75 90 110 123 139 159 161
196 147 111 100 72 92 83 80 111 145 177 144 127 108 141 183 224 294 340 364 371 387 386 338 318 294 271 253 226 176 146 179 158 132 130 98 88 91 101 128 147 191 190 192
174 149 149 148 145 192 225 232 244 220 212 181 151 136 165 254 301 353 377 371 368 316 291 245 275 273 266 187 175 159 148 123 135 131 123 109 106 114 140 165 198 232 240 248
160 197 189 210 258 362 301 283 312 323 283 289 299 224 259 399 374 410 404 368 337 307 289 268 241 241 222 187 195 146 124 104 122 111 113 121 152 182 199 228 263 274 296 288
201 195 203 155 159 247 308 323 324 360 294 244 280 336 326 349 360 367 367 325 301 293 265 256 260 242 235 228 215 186 156 136 119 105 113 137 167 193 230 266 265 257 230 234

GFSCGP_con_3kmhel_063.txt.gz
Helicity
13 -25 -33 9 -25 11 4 81 52 41 29 11 45 1 42 62 67 72 98 85 75 32 -34 -82 -47 -53 -49 -3 73 125 179 190 247 229 213 204 204 193 184 163 154 149 167 149
25 -9 -50 4 8 8 -14 92 124 72 61 41 26 -9 38 75 96 131 116 104 64 -13 -31 4 -30 -17 16 57 92 125 171 220 224 214 195 202 211 175 161 141 146 169 142 112
72 48 7 -5 21 72 124 94 129 117 39 29 13 10 87 55 61 6 67 104 88 62 41 49 77 92 105 115 139 161 191 215 201 201 249 246 274 235 198 171 172 111 84 82
19 -20 -4 -0 10 6 74 55 80 83 26 3 32 28 37 160 125 99 76 141 109 94 32 103 139 161 175 139 153 199 204 231 202 233 250 231 222 249 162 149 126 95 87 111
9 10 26 38 71 36 31 42 61 17 22 60 61 69 3 76 151 167 244 179 164 163 210 170 229 214 228 213 228 247 231 245 187 226 196 146 156 155 160 149 166 147 183 218
16 27 15 23 20 19 9 54 56 42 34 38 37 23 -3 124 176 205 274 251 275 230 264 216 230 259 276 246 222 277 279 180 157 232 158 109 135 156 179 202 225 249 334 322
46 38 24 9 17 30 23 64 65 62 64 -5 26 44 -2 20 55 93 219 257 352 394 417 330 337 291 277 219 203 223 233 228 206 145 84 88 132 164 181 269 351 403 455 492
-29 -28 40 28 22 26 35 40 83 63 22 20 58 35 15 -6 28 9 43 168 261 426 482 410 383 348 262 179 160 211 249 194 109 77 115 147 186 198 263 361 416 451 432 218
-28 -16 35 43 35 9 36 62 49 108 92 58 43 48 24 37 26 34 60 114 192 284 351 396 375 310 244 205 203 183 194 172 141 184 230 256 277 360 449 548 448 537 226 214
96 -35 26 55 39 61 61 64 90 89 86 56 43 48 16 32 44 28 40 43 76 161 236 273 293 248 210 153 149 200 222 215 228 273 309 349 373 427 478 530 517 312 347 125
130 85 24 45 54 57 122 109 85 82 88 53 -1 10 -13 1 12 61 26 33 100 174 212 235 237 226 174 201 249 223 253 303 309 314 353 396 394 482 534 635 430 222 162 127
53 106 84 70 74 60 106 105 102 100 55 91 67 19 48 11 -36 14 23 57 95 140 153 194 216 263 261 266 265 290 308 320 333 362 465 547 650 611 651 416 164 264 200 208
87 105 141 93 103 113 46 92 76 98 124 101 109 47 65 52 45 32 40 55 110 127 133 155 209 269 300 315 342 428 465 552 538 553 577 642 508 482 329 276 232 247 262 224
200 138 124 65 55 73 84 66 46 101 162 107 86 27 74 96 95 67 86 86 133 168 209 235 297 339 437 471 456 589 605 644 628 550 550 477 412 266 291 289 334 326 276 218
160 91 151 104 80 72 66 89 103 132 135 158 65 107 56 74 60 56 66 83 106 183 260 332 412 483 515 522 560 562 540 625 542 545 416 392 379 383 365 407 368 292 254 212
204 133 169 166 144 120 73 73 90 117 162 169 115 101 76 85 97 101 59 99 113 165 260 359 427 508 508 564 543 527 580 547 509 475 448 443 426 427 411 367 343 297 220 158
169 197 180 110 167 151 120 107 119 112 130 152 159 128 111 152 203 194 162 125 97 121 211 290 389 462 468 452 514 518 523 493 474 477 469 477 447 396 370 353 341 236 195 181
198 219 196 103 165 110 87 128 130 124 149 141 179 181 182 196 208 261 266 169 162 148 194 267 356 371 355 406 415 429 439 468 494 506 471 411 381 387 373 310 205 218 190 124
197 245 215 141 153 132 101 103 127 119 97 95 135 169 159 137 157 188 205 173 134 154 209 258 287 318 351 366 416 501 539 535 516 439 412 414 369 280 212 177 213 155 138 127
264 231 205 179 154 85 28 95 116 170 140 111 111 118 115 151 143 86 155 171 211 253 271 317 352 390 455 455 518 573 526 451 415 393 378 278 231 171 176 170 141 144 134 128
332 294 204 224 162 98 79 130 142 208 91 182 152 115 105 101 99 134 163 199 243 274 317 352 396 438 458 502 507 463 409 382 316 313 237 150 161 165 139 132 132 142 138 144
260 264 182 215 195 108 110 177 182 99 137 134 154 148 154 163 173 198 200 230 273 321 355 398 451 429 383 356 338 325 323 254 201 147 151 152 144 133 130 150 140 142 156 171
230 198 187 144 104 131 95 74 99 99 105 124 166 141 143 149 144 185 228 278 319 349 359 340 359 366 330 306 279 255 199 184 152 127 137 145 129 120 136 147 149 177 190 228
234 235 223 225 165 145 124 127 142 143 157 158 134 137 137 181 210 263 288 310 343 341 351 319 335 336 337 315 290 264 220 195 166 152 149 139 141 133 134 169 205 242 268 286
201 316 279 282 204 209 168 161 214 254 258 279 252 184 221 299 277 318 334 351 349 357 347 336 347 344 294 282 283 265 226 191 182 156 138 128 116 113 116 136 173 202 231 272
171 250 308 183 171 237 175 221 260 307 284 257 326 348 308 326 355 372 393 370 369 381 376 373 332 301 261 241 249 226 186 146 129 117 102 96 99 109 125 141 141 153 160 172

GFSCGP_con_3kmhel_066.txt.gz
Helicity
-16 -12 -16 19 10 6 37 -30 -19 37 82 -6 25 3 48 81 61 99 72 65 84 48 -10 -41 -40 -19 -23 -19 -12 34 81 71 119 136 140 138 131 134 126 121 148 157 159 160
-12 -13 19 57 -49 -56 -5 -22 26 92 16 -50 -33 4 36 159 105 110 116 72 19 4 -21 -69 -50 -7 -4 17 34 57 79 127 140 156 154 152 169 144 149 158 160 140 148 127
26 20 32 3 15 20 25 14 106 77 19 -18 -0 -3 9 77 101 66 45 71 39 31 -2 -25 -5 7 22 24 64 105 113 153 172 186 250 237 249 213 186 177 151 126 115 109
1 30 29 -17 19 29 60 32 32 20 26 3 14 12 -0 58 123 108 68 71 62 47 -26 -19 4 1 49 36 58 107 153 172 188 224 264 277 239 209 154 175 136 142 152 172
-0 35 17 -11 -12 21 23 26 71 55 45 31 19 39 -12 -2 55 108 110 117 65 67 82 40 48 53 66 91 121 162 177 190 206 240 272 229 189 141 150 185 175 189 201 221
14 -9 -9 1 14 2 24 41 86 84 103 55 32 38 -16 37 94 90 91 113 151 106 115 91 102 111 133 174 171 203 236 250 216 238 256 198 166 125 164 186 217 243 265 232
5 62 20 24 47 38 44 50 57 60 71 22 31 49 -12 1 -13 12 108 215 256 237 204 204 236 238 216 209 199 141 197 244 254 263 264 175 79 115 151 193 257 287 278 282
6 -22 37 30 26 22 24 47 51 30 41 35 46 -5 -8 21 8 -10 8 52 185 262 250 258 296 330 300 251 207 199 174 228 321 245 184 125 110 138 153 222 264 315 370 401
37 -28 65 50 50 44 39 62 43 79 80 69 54 53 23 33 16 14 37 35 84 192 235 264 302 320 346 269 136 146 174 225 265 222 154 117 128 158 224 248 364 457 473 537
-2 -31 23 71 64 68 42 35 70 76 49 30 23 43 20 26 47 23 34 13 -15 26 130 224 272 295 278 228 145 149 165 174 168 143 134 161 207 257 321 443 549 515 606 494
90 22 9 103 91 56 61 83 114 100 108 68 34 20 24 6 10 37 55 28 40 70 87 132 146 175 232 187 196 151 154 152 131 137 194 228 245 371 536 516 538 488 467 306
74 59 17 8 97 59 54 70 109 138 81 96 89 30 40 5 7 -7 -10 13 44 77 112 136 145 192 251 233 199 180 150 165 194 265 344 410 474 544 568 605 489 204 243 115
80 97 46 43 88 144 111 92 150 162 159 128 124 42 32 24 19 27 30 35 29 69 96 102 118 146 179 224 250 233 275 342 392 466 502 408 568 528 396 494 178 229 147 105
116 127 126 86 74 95 80 110 150 160 109 79 100 41 -9 -5 4 17 41 53 68 81 86 116 132 172 243 286 361 364 386 451 497 494 493 544 452 324 270 246 212 182 221 252
115 110 122 93 84 108 84 99 115 138 134 113 76 124 18 18 32 46 50 50 64 102 126 140 209 268 365 378 372 393 430 478 466 523 588 457 277 332 334 302 216 341 297 260
168 136 143 114 147 157 123 73 84 101 116 109 127 130 110 123 90 86 79 63 72 90 109 137 242 334 355 348 379 400 438 505 520 575 549 292 356 361 348 270 414 238 297 280
166 202 212 138 203 190 54 94 155 172 211 221 231 202 161 161 185 151 140 163 142 97 99 136 209 302 352 377 415 435 423 436 456 391 366 347 353 349 311 345 316 319 200 165
207 248 236 195 231 153 137 137 122 135 128 160 159 149 133 172 200 194 144 105 121 115 122 168 204 259 291 313 341 373 385 397 381 383 382 362 334 363 346 399 203 149 181 174
191 249 229 220 187 150 100 132 122 135 71 126 131 140 139 142 138 180 150 135 107 96 111 129 163 202 247 269 299 370 356 347 376 374 337 341 394 255 261 136 126 162 168 161
219 209 217 247 207 118 56 74 144 190 102 150 170 125 118 107 129 93 108 117 150 149 139 178 220 254 295 274 294 358 367 386 368 325 309 273 174 156 117 132 143 140 148 166
330 337 272 310 202 136 105 134 177 210 125 116 170 140 125 121 120 110 128 171 161 161 205 244 279 302 300 319 383 402 366 334 257 257 267 177 101 149 144 125 132 147 156 168
285 301 299 341 294 155 177 258 213 117 113 124 142 150 170 160 165 192 186 188 199 234 257 287 358 355 327 312 322 313 317 249 236 199 183 181 154 130 124 131 133 144 156 182
243 227 262 225 191 195 98 143 120 121 115 119 144 135 185 201 172 181 197 207 242 283 341 344 388 410 400 386 343 384 342 279 210 189 222 181 143 136 130 125 124 139 148 176
207 212 208 252 187 150 142 136 130 128 108 155 151 191 182 215 204 216 225 259 311 333 363 364 415 459 446 415 417 340 258 183 188 208 171 150 135 124 114 110 113 129 144 158
208 262 224 232 196 197 150 148 146 165 172 227 254 216 221 276 238 234 264 309 341 378 409 413 427 407 378 352 298 220 207 191 169 150 129 113 92 82 74 74 82 102 120 144
253 246 343 247 208 299 188 186 199 237 227 243 315 310 271 260 278 291 338 348 395 440 426 433 381 346 268 237 221 217 184 157 142 127 103 84 67 61 63 71 78 88 97 111

GFSCGP_con_3kmhel_069.txt.gz
Helicity
-2 11 8 -13 2 8 35 33 4 -18 -22 -2 -4 19 74 97 104 89 62 51 13 10 28 20 39 49 29 15 18 13 -3 11 45 43 44 32 48 65 67 63 70 91 114 117
1 21 6 -13 -6 -8 -13 -13 15 23 35 -56 -32 -1 18 83 107 135 129 67 45 16 2 -3 3 2 14 47 55 11 23 55 49 47 75 80 93 77 83 77 89 98 114 130
24 16 42 24 -22 8 7 -0 14 48 21 -11 -56 -24 27 43 29 35 53 71 38 41 50 38 29 32 33 37 55 50 52 81 79 79 134 141 176 151 132 126 113 96 127 152
1 -4 17 1 -8 8 -6 28 14 36 17 34 -20 11 -14 64 97 49 45 65 55 32 6 -1 5 14 38 21 15 20 38 66 86 115 127 144 171 207 140 105 124 135 147 167
-14 13 -33 -14 -10 10 8 27 22 35 52 31 14 2 -25 24 49 120 105 75 42 37 34 37 24 2 -1 9 35 54 74 100 115 131 129 169 167 191 148 132 161 171 178 191
-8 -5 13 -7 -4 -8 19 34 62 72 71 34 39 21 -4 14 18 -1 84 107 65 39 42 19 5 11 20 37 53 75 97 101 124 138 133 156 171 154 138 131 172 185 188 212
16 -33 -20 20 19 21 38 55 58 68 83 49 56 30 -23 7 -14 -5 15 77 100 86 71 64 68 67 58 77 91 107 101 121 134 177 181 197 208 132 99 116 172 188 199 225
6 -17 20 27 31 21 39 50 73 50 54 54 58 60 27 14 12 -0 4 11 19 62 59 81 101 137 152 136 120 124 115 130 129 170 217 215 216 169 76 103 143 158 197 250
89 16 14 -4 63 61 53 73 63 106 86 58 44 49 5 11 3 3 26 34 29 32 62 62 91 154 179 189 168 133 113 134 171 219 229 202 203 123 72 88 134 207 251 326
66 128 55 50 85 110 47 58 100 98 75 64 45 28 38 32 29 8 44 60 64 45 46 40 66 115 157 199 185 128 110 120 171 198 184 172 144 91 84 147 239 293 368 387
84 89 72 61 51 69 120 112 124 101 87 70 47 37 31 -2 14 18 -1 22 7 23 24 46 68 76 116 142 124 116 106 120 145 135 136 138 127 124 160 238 290 385 444 418
86 99 42 46 44 60 78 76 111 163 107 121 115 67 61 12 13 19 12 -9 -18 -13 -5 42 70 86 96 103 98 102 89 76 75 109 127 155 207 202 217 284 371 304 379 172
162 116 67 65 78 88 22 28 85 144 150 146 143 139 61 41 33 9 20 19 23 21 7 32 60 62 68 82 112 123 110 144 162 198 223 222 247 230 349 383 282 214 142 128
202 139 102 51 39 75 59 91 130 128 121 142 158 75 39 30 48 20 19 27 36 32 43 46 49 53 53 68 109 123 163 194 243 284 324 351 387 463 430 208 147 253 338 144
138 119 111 71 70 105 74 78 119 95 111 147 94 125 64 48 91 72 59 55 40 40 51 69 78 101 111 110 149 175 216 244 268 324 402 448 535 483 182 207 308 358 156 141
115 100 140 103 133 85 98 66 88 73 116 92 88 23 88 111 135 119 116 98 65 49 54 78 119 156 154 166 207 233 248 250 298 304 335 391 449 166 208 292 356 73 108 237
107 200 183 117 152 143 122 106 133 133 151 168 166 125 134 111 128 150 144 146 138 147 138 125 127 147 153 178 208 215 184 185 205 273 304 251 243 257 283 266 106 208 137 114
119 165 195 150 213 176 121 174 131 102 101 170 138 130 101 116 180 171 151 115 113 105 92 94 100 133 162 181 212 233 234 261 333 317 285 264 270 292 271 180 227 71 138 116
133 170 175 180 170 181 130 152 135 135 74 112 125 94 113 158 152 134 117 106 90 80 88 107 109 124 154 184 219 272 280 296 304 277 285 262 272 310 296 109 78 101 112 111
184 184 162 171 171 157 119 143 169 147 1 122 152 138 164 166 151 120 113 128 122 119 133 149 156 168 201 207 228 283 294 307 280 259 267 276 167 141 102 100 88 108 111 94
241 217 161 209 179 179 161 190 195 124 126 66 89 159 212 155 119 168 163 172 160 159 170 180 205 234 221 211 269 331 306 309 279 264 217 190 156 128 146 153 146 120 115 111
208 215 210 244 222 158 213 310 210 174 111 99 114 173 223 163 189 194 173 178 183 197 203 230 270 284 267 286 351 366 362 291 281 275 245 215 182 177 176 156 133 122 127 126
169 159 160 207 206 199 154 178 223 144 134 109 141 177 215 223 178 183 205 205 203 233 278 298 372 410 382 347 330 376 310 266 250 233 229 195 203 183 162 148 141 129 133 136
223 104 168 147 147 163 144 155 167 148 127 140 183 249 234 230 212 228 235 232 245 277 330 351 402 429 419 381 366 315 276 252 223 226 201 209 181 164 149 133 131 127 128 124
198 270 222 114 140 138 124 101 137 163 201 209 249 213 230 275 260 263 262 258 297 331 354 356 382 383 360 323 315 271 243 187 191 210 194 170 146 139 129 120 110 106 112 105
244 203 237 159 127 197 159 96 115 154 182 219 290 302 256 266 306 299 332 325 358 374 365 376 355 345 313 296 289 260 228 223 187 173 156 141 125 115 106 102 103 109 90 98

GFSCGP_con_3kmhel_072.txt.gz
Helicity
21 5 27 16 16 -44 -31 -10 -6 -15 -52 -13 23 72 45 78 47 61 54 30 35 24 32 44 44 51 41 44 53 51 38 25 -42 -46 -35 -21 -9 13 26 26 39 52 59 77
30 18 -1 1 3 6 5 11 16 -14 -38 6 33 38 -0 58 54 41 44 57 61 65 39 73 63 50 62 51 30 24 27 -6 -18 -21 -6 8 26 24 28 43 58 64 76 89
4 12 28 23 36 26 12 16 11 10 11 16 22 28 17 20 35 34 23 14 44 77 75 41 45 37 29 28 42 32 11 7 -0 2 22 39 60 51 49 60 92 75 95 112
4 -12 12 23 -0 -5 13 6 24 18 26 12 -2 8 26 21 44 55 26 48 34 38 43 52 47 36 32 25 12 7 -17 -25 -7 16 45 49 49 56 64 97 102 93 108 120
44 12 11 -0 -4 -8 24 -1 -6 11 4 14 36 14 62 -11 12 55 87 45 40 51 50 44 55 45 28 15 1 -10 -2 7 28 50 55 68 66 79 116 186 132 90 123 116
-1 23 2 -39 7 -4 18 10 31 31 31 16 35 -10 24 12 -18 16 5 43 33 30 53 51 43 36 36 36 26 40 49 51 69 71 85 93 99 128 135 177 177 130 105 127
51 -7 -19 -23 15 23 1 8 20 30 36 12 64 13 -41 -17 22 18 27 2 1 10 6 30 41 47 47 89 87 79 77 70 84 98 125 109 108 157 135 143 162 90 118 141
62 44 3 1 8 12 22 6 51 44 44 46 65 -9 13 34 31 32 18 20 20 12 6 -1 19 57 65 102 108 111 103 81 93 109 121 123 104 115 129 136 117 77 97 118
61 25 77 16 9 -2 54 45 79 82 79 61 47 40 12 28 25 17 21 21 30 14 19 13 6 26 60 92 104 119 106 78 64 115 109 115 138 138 146 123 91 76 103 171
91 65 56 75 36 42 41 78 51 88 79 58 69 34 40 51 43 46 54 76 48 54 40 32 32 39 29 65 88 108 91 88 63 98 123 147 130 113 141 143 114 128 192 225
85 121 115 88 70 55 82 44 61 78 105 80 61 52 66 9 35 36 34 27 62 44 32 38 50 40 50 66 70 81 101 101 83 98 109 120 100 126 136 169 169 191 218 258
77 116 100 83 91 23 -14 -5 20 6 58 100 108 58 45 31 34 29 26 23 21 14 15 19 34 63 86 82 85 81 82 97 106 98 111 118 201 257 268 220 228 261 245 160
150 135 113 97 85 86 82 26 14 5 9 28 31 48 47 61 29 25 18 32 31 41 47 44 57 67 71 80 83 90 98 116 135 136 195 238 238 199 166 283 282 298 276 108
131 93 71 51 30 41 41 44 55 42 11 7 43 16 22 23 2 17 47 48 38 35 36 38 57 57 70 81 88 90 138 200 195 186 195 241 288 432 420 419 293 302 184 80
84 84 51 29 17 26 10 -4 27 22 17 17 31 19 28 13 12 26 88 111 75 40 42 49 51 92 115 123 128 144 195 222 218 224 308 374 367 374 384 352 304 220 174 240
139 99 79 51 62 40 19 -2 2 16 8 6 8 -27 20 10 40 52 89 115 118 113 56 41 58 113 161 184 179 207 244 233 222 230 235 306 373 374 349 270 191 165 250 42
149 129 109 58 69 75 49 26 50 47 53 41 -10 -10 22 23 22 39 98 115 117 116 102 92 97 120 179 215 211 221 225 246 277 290 307 316 312 282 201 158 186 158 79 75
127 111 120 82 94 125 21 98 47 42 51 57 25 7 19 21 89 128 119 125 139 153 140 139 143 143 165 197 210 217 257 289 311 321 318 291 278 268 248 213 170 143 47 96
114 104 157 180 114 108 78 119 121 127 40 41 55 15 38 111 90 80 118 149 155 142 146 136 124 125 143 174 196 239 279 302 310 288 270 252 243 245 207 182 84 47 103 111
131 129 151 188 172 127 77 86 120 130 28 38 44 8 55 133 93 108 137 152 162 161 145 128 119 126 145 157 180 213 242 255 253 239 237 213 211 206 81 85 119 112 122 139
202 197 148 134 160 129 117 131 154 110 103 59 49 33 78 106 140 181 187 190 184 173 159 154 155 172 186 194 212 253 258 260 262 278 273 225 171 147 147 139 136 144 140 126
195 180 193 207 185 151 144 207 172 136 94 73 54 65 67 167 178 161 205 212 196 183 180 185 206 228 224 221 239 261 271 263 274 263 237 218 183 170 159 144 153 142 147 146
130 126 159 119 125 150 88 75 85 111 84 108 86 97 150 218 202 185 206 206 201 205 207 212 251 275 269 255 246 287 271 254 273 248 233 208 199 180 171 193 177 166 159 163
129 165 170 117 94 73 69 64 129 117 128 124 88 109 175 220 235 232 232 235 236 225 237 261 300 333 345 322 309 283 263 242 234 252 239 227 224 203 194 166 163 171 178 172
59 96 109 127 98 89 71 65 67 98 93 104 81 111 160 255 257 260 261 253 258 275 274 286 309 349 374 348 335 300 257 240 258 245 233 227 219 194 180 178 180 172 189 175
123 107 139 137 72 114 64 85 60 72 74 122 109 128 190 227 273 276 300 311 309 307 331 336 350 388 394 351 337 297 280 255 253 251 247 211 184 169 163 154 133 142 158 167

GFSCGP_con_3kmhel_075.txt.gz
Helicity
53 31 28 16 44 -13 20 -18 -23 -5 -15 -38 15 11 47 60 53 83 51 154 143 30 -29 -17 -34 -81 -25 -42 15 11 6 -4 -11 -17 -6 -14 -13 -31 -20 15 22 32 41 55
29 30 -22 -7 -34 -15 -14 10 -8 3 -33 -36 25 16 22 82 57 107 63 75 113 160 100 62 55 31 66 60 47 30 30 -2 -12 -20 -17 -19 -12 -6 -4 18 34 40 79 74
12 6 8 30 16 -2 17 8 -4 22 -13 3 26 29 3 67 48 71 84 79 94 96 129 92 73 59 41 46 9 9 -5 -11 -16 -27 -27 -2 27 21 30 35 55 69 73 78
29 -30 52 25 -3 5 -9 11 -6 33 34 15 12 25 -11 61 48 70 77 90 92 95 69 71 58 55 45 32 35 5 6 8 -2 -27 12 19 58 41 39 67 102 99 134 93
25 6 52 10 5 -11 -30 68 -22 -7 20 34 29 -3 71 10 57 65 69 90 84 68 111 96 74 70 54 31 23 20 -8 -8 31 24 -6 59 28 40 102 156 111 120 130 94
-12 42 20 4 3 -21 29 20 -5 -12 32 17 42 10 62 33 -6 16 39 79 55 72 84 93 87 57 63 65 50 36 25 24 46 98 40 91 57 111 166 179 141 139 155 143
17 56 25 9 9 11 6 -1 12 33 14 28 -4 30 10 18 34 16 -2 26 45 55 43 54 67 95 55 84 88 70 57 60 94 120 100 73 83 116 154 139 157 193 167 177
65 72 31 44 -23 54 35 1 -6 -8 21 33 32 16 12 56 33 18 18 12 30 32 84 73 67 70 72 96 132 97 92 78 107 100 109 101 98 162 176 117 141 182 137 163
63 9 70 31 16 -48 9 11 -14 -60 58 67 36 19 22 37 29 24 8 21 29 24 20 60 55 71 86 106 120 111 93 90 98 104 106 107 100 132 184 145 169 156 126 179
42 24 48 83 10 -12 -42 3 3 -13 -21 -9 10 13 17 38 15 49 -1 36 36 41 25 26 55 82 77 135 113 112 78 77 84 117 111 134 103 116 136 214 189 152 186 157
12 59 82 97 50 44 36 -18 -29 -24 -25 -12 -28 18 91 30 34 28 24 27 29 48 47 29 33 49 83 130 112 111 94 84 121 166 113 149 168 152 192 181 201 189 290 398
-0 56 78 79 24 -5 6 51 9 -38 -35 7 -18 -41 62 21 16 45 22 23 26 40 33 31 26 33 58 94 122 117 82 89 176 163 203 230 181 294 336 349 367 423 510 415
32 84 93 45 57 90 43 -40 -18 -8 -29 -60 10 8 11 28 28 26 14 12 32 40 43 55 47 52 68 84 102 115 122 85 114 261 371 287 314 335 329 325 339 562 551 307
40 78 72 74 46 47 38 4 -8 -16 -29 -2 -19 -16 -3 12 73 -8 25 21 28 30 35 43 59 56 68 83 106 112 157 192 322 460 340 302 333 382 415 439 444 430 450 471
35 35 47 23 19 18 22 48 13 -17 -8 -1 12 -9 7 -11 12 35 35 38 71 43 43 58 58 95 87 110 128 164 236 309 353 316 321 374 459 395 334 304 298 366 356 283
43 56 29 42 32 23 35 29 1 -5 16 15 -1 18 -16 27 31 21 34 37 58 71 110 107 77 80 129 130 179 268 355 335 318 327 350 400 437 409 399 373 358 333 201 125
75 63 70 83 35 29 77 -7 -1 5 13 19 2 -11 -15 -18 -10 25 19 27 109 120 136 116 78 95 169 172 316 417 380 273 260 348 377 337 356 384 385 320 284 190 96 81
183 107 86 113 164 108 94 24 6 11 -12 5 19 19 7 -23 4 64 97 130 171 119 124 139 174 203 197 295 293 294 376 405 409 346 290 307 332 324 261 244 206 157 146 121
165 182 132 145 88 82 47 88 58 23 12 4 6 16 17 37 92 78 122 102 158 159 148 140 132 144 162 213 180 189 212 234 222 224 239 257 265 256 225 164 167 144 124 125
146 112 107 129 93 67 64 71 62 22 24 -5 -0 4 43 75 37 48 212 133 143 142 139 134 145 145 132 135 151 164 155 177 219 245 234 219 185 161 207 170 152 134 149 164
217 204 152 117 131 105 48 76 74 78 21 22 43 46 57 45 67 176 172 153 165 172 162 159 148 137 150 161 167 186 187 219 221 219 216 238 236 189 179 193 176 174 171 187
86 133 199 141 133 126 110 162 108 78 -13 49 45 45 49 94 179 176 173 207 197 201 191 176 174 176 168 178 195 226 267 258 231 233 212 225 242 226 186 178 181 179 176 190
72 81 129 142 128 87 91 69 64 31 47 66 56 75 76 155 134 157 188 212 223 208 215 198 214 230 231 229 244 301 298 242 242 246 258 277 242 210 204 201 209 197 201 189
66 34 79 65 74 88 47 20 35 63 59 86 87 83 102 118 112 153 199 226 234 231 235 246 259 276 306 308 307 293 289 286 268 264 259 251 234 226 213 206 220 208 203 199
91 75 75 69 38 31 129 91 67 31 49 61 58 43 74 115 137 151 190 221 245 259 265 263 290 330 357 356 364 347 316 299 292 269 262 261 258 245 232 270 241 216 240 225
65 65 115 85 32 31 21 67 64 55 59 91 75 53 83 130 137 157 206 245 284 295 305 350 362 376 406 406 396 355 319 307 285 287 302 292 254 232 221 191 163 206 220 181

GFSCGP_con_3kmhel_078.txt.gz
Helicity
46 50 56 6 39 65 1 25 -20 51 74 -43 -5 13 67 60 67 194 266 209 99 17 -27 -64 -70 -66 -31 -81 -117 -104 -75 -71 -63 -98 -69 -23 -4 -13 -60 -77 -49 -18 -4 18
31 89 4 14 2 -36 -15 -26 -3 14 1 50 -22 38 75 126 58 200 225 228 155 113 70 55 6 -31 -71 -95 -60 -44 -14 13 -2 -7 -7 -12 -14 -26 -41 -30 -14 13 36 39
53 -2 66 18 6 -1 -16 -5 -16 -1 8 7 -1 49 3 102 -6 155 118 215 198 189 117 71 42 20 66 46 23 29 49 54 33 8 -56 -26 4 12 -0 -20 30 65 75 85
26 5 -44 16 38 -14 16 19 9 38 55 17 43 12 33 112 39 112 208 151 214 226 215 135 91 51 57 66 65 18 -0 54 8 -36 8 22 42 68 35 55 70 100 93 104
18 -5 -0 33 10 -1 -29 30 47 11 -18 11 91 5 4 81 54 68 126 141 225 175 230 199 108 117 96 101 49 -5 -2 35 26 -21 -25 57 102 83 82 103 141 197 144 154
2 1 20 -16 40 -10 -19 -32 -23 -15 -8 -11 47 24 82 55 2 56 132 148 160 241 255 217 140 131 115 85 103 35 -17 72 84 69 51 33 116 87 129 206 222 198 193 186
-6 -10 1 11 13 6 1 -14 -10 13 -45 43 38 21 50 32 16 38 13 119 148 172 310 283 230 173 156 125 122 111 87 9 89 180 96 132 62 126 204 273 297 226 198 222
62 75 -38 91 30 18 29 2 -5 22 16 -21 146 15 -1 24 45 51 57 7 48 109 177 277 326 286 188 196 215 175 165 82 33 273 240 167 153 126 200 257 270 192 193 206
51 29 15 50 66 -67 47 20 -14 -10 1 -40 54 1 34 66 37 48 10 17 37 28 45 169 202 310 332 255 280 285 205 142 81 237 283 214 160 119 240 245 236 191 202 179
-41 33 -6 91 59 -7 -47 -0 -4 -33 -27 -11 -23 -8 99 92 -27 72 -22 59 47 64 32 6 105 176 311 300 319 323 266 178 140 134 252 260 227 146 195 211 199 228 212 181
-28 -21 25 14 98 40 23 1 36 -26 7 4 -4 -11 -0 31 40 -14 26 60 51 40 42 10 7 37 200 279 296 382 317 210 155 150 207 244 274 268 203 252 333 365 361 369
27 50 47 43 97 41 8 46 -4 64 28 20 73 -59 16 33 24 21 74 41 41 73 43 61 40 52 63 155 253 315 417 315 155 142 208 386 375 324 311 411 441 413 378 429
55 36 76 45 28 66 35 -45 50 14 -33 -45 16 -3 32 8 41 69 52 30 28 78 49 61 81 52 34 62 197 282 318 240 116 132 402 571 411 413 382 353 361 426 452 490
7 59 63 85 70 91 57 14 21 22 82 50 29 -33 -40 -11 40 77 51 182 33 76 59 33 102 105 80 83 111 186 254 265 262 306 493 593 445 473 485 470 439 428 402 434
74 105 70 65 64 21 42 35 32 58 56 4 58 -18 -20 -10 -3 80 64 63 41 39 66 56 37 102 166 136 152 159 329 443 483 554 547 528 554 535 471 435 417 425 424 378
83 122 60 76 51 47 67 13 61 65 15 36 31 -16 -4 -26 2 73 20 56 52 47 81 128 149 93 188 270 278 395 502 496 528 579 582 488 437 454 395 402 514 458 402 350
145 149 94 83 61 76 60 8 40 49 37 33 34 38 43 32 9 33 55 96 83 52 180 232 154 144 307 497 452 469 539 540 549 479 432 401 394 399 446 534 453 399 315 249
272 197 89 80 116 43 48 72 59 61 70 64 52 47 41 30 25 48 92 118 97 164 219 225 186 303 373 456 502 550 501 501 455 338 344 328 340 379 411 427 375 292 240 170
162 410 149 167 94 121 80 81 115 122 55 37 43 31 28 37 103 89 77 127 125 224 202 188 246 368 360 348 327 343 330 309 275 263 257 247 287 351 330 298 265 233 197 193
10 326 175 208 188 89 142 105 69 51 74 4 3 29 48 39 85 111 131 138 215 227 192 189 245 300 225 204 208 231 238 240 218 205 195 211 237 283 281 264 214 186 210 226
85 127 278 237 191 147 81 59 76 56 89 -7 40 49 91 109 141 172 152 139 138 157 157 181 192 167 149 143 148 155 159 168 173 223 259 265 243 226 226 229 254 262 279 344
115 121 199 144 161 79 98 108 69 76 20 27 23 60 105 136 159 166 124 137 161 170 195 180 184 201 206 188 178 164 177 250 299 254 242 276 293 260 274 311 290 274 268 303
84 122 137 154 135 140 94 91 49 50 56 50 67 89 100 154 155 137 137 168 183 202 174 199 231 249 217 196 150 230 326 306 312 325 331 368 332 297 273 275 284 295 303 288
45 75 81 67 81 121 32 248 61 80 96 107 88 85 122 133 146 144 166 171 199 207 236 273 331 332 332 283 339 412 379 346 354 352 392 353 342 343 328 338 335 339 338 295
91 80 71 36 28 1 9 -25 123 86 57 60 81 52 70 151 135 126 171 203 197 250 307 359 353 402 444 466 451 368 395 370 443 459 426 439 408 403 423 413 391 296 277 242
95 55 94 100 61 48 39 48 103 83 67 69 111 86 103 118 136 135 165 219 247 327 362 376 397 407 483 549 582 561 495 525 515 550 648 493 422 402 312 283 299 258 158 150

GFSCGP_con_3kmhel_081.txt.gz
Helicity
19 45 78 28 19 24 35 14 100 73 36 132 119 118 83 -11 219 365 266 182 89 67 68 37 6 -27 -15 -19 60 94 44 25 21 -12 -32 -84 -84 -66 -55 -95 -42 -42 -26 -28
39 51 78 9 12 16 34 26 30 16 53 128 26 53 50 82 269 375 321 223 151 136 90 47 22 -28 -102 -95 -126 -110 -85 -100 -116 -99 -116 -67 -100 -95 -82 -58 -53 -31 -16 -22
94 9 89 -4 1 13 28 28 16 -19 34 17 61 38 54 206 283 267 252 214 195 176 132 45 18 21 -63 -90 -98 -58 -53 -41 -56 -71 -67 -56 -67 -61 -25 -29 -14 9 -2 -2
60 8 -16 12 52 40 43 -22 44 -9 -19 -48 33 -41 15 74 253 327 164 269 247 199 161 103 77 54 -10 -76 -67 -9 6 32 -1 -18 -41 -35 -31 -5 -2 5 -4 19 69 64
87 40 7 -9 -22 65 42 -36 16 30 -62 -41 -10 40 17 42 182 247 247 260 297 259 222 181 134 92 59 27 -7 3 13 11 7 8 -8 -47 17 65 54 36 47 74 96 95
28 17 -31 -52 -5 49 75 17 23 22 -39 -75 -4 13 -15 43 181 125 267 281 281 292 262 205 177 124 80 104 76 49 43 60 59 56 36 -21 34 118 123 107 140 170 167 148
14 -113 -118 -32 29 44 112 70 24 17 48 -3 60 21 81 85 -1 36 258 310 294 296 326 287 205 190 134 155 125 106 59 59 107 109 97 73 121 180 192 200 206 220 210 164
109 -4 -108 -85 20 99 75 104 94 51 51 42 72 -4 5 5 -22 50 17 140 299 367 355 339 334 278 222 197 175 148 110 56 79 131 129 88 131 192 212 258 275 230 223 193
130 74 25 -63 39 168 84 104 80 79 29 -37 33 -43 33 46 -37 65 51 44 166 283 393 394 368 340 317 287 302 237 189 117 112 139 156 169 163 183 291 336 379 293 257 224
120 122 -10 -37 73 119 111 74 86 57 61 10 -12 -8 11 96 88 37 66 101 103 123 210 303 368 370 345 339 350 334 274 231 200 159 195 205 218 256 304 439 394 362 249 246
79 92 47 57 59 140 145 82 101 21 61 74 21 -17 3 59 101 204 53 55 82 90 84 98 105 227 370 309 316 332 318 256 211 144 233 270 285 305 389 396 358 287 302 311
168 117 68 -18 65 56 197 123 119 105 62 66 103 12 -6 -5 -11 31 -7 71 85 87 90 91 39 66 186 285 333 345 350 346 315 294 361 291 366 347 389 332 326 367 369 353
187 235 176 64 62 43 176 160 105 126 121 95 98 -15 -15 24 44 33 88 64 82 62 109 105 136 66 44 120 177 277 379 402 348 352 296 351 468 472 429 418 409 436 429 380
240 250 101 157 124 42 149 132 90 119 140 51 49 71 55 -17 7 36 81 123 73 48 125 58 149 127 90 54 120 216 319 348 363 267 339 494 563 623 380 474 568 452 402 409
218 151 182 50 8 72 64 79 34 74 85 126 13 -1 -2 -40 42 30 67 71 100 13 19 62 103 122 155 198 223 185 308 400 446 504 476 502 575 563 474 525 481 410 357 405
329 132 224 185 50 99 64 41 61 49 38 67 121 80 61 33 43 87 83 85 55 20 108 132 168 132 192 341 404 434 484 515 475 498 476 503 509 469 417 444 440 497 545 459
299 305 181 154 129 68 61 59 51 56 29 86 63 49 52 44 71 59 63 100 129 133 169 215 266 261 372 462 500 524 511 461 475 514 476 496 477 451 441 441 439 448 446 460
243 272 291 177 127 161 74 68 84 49 15 45 93 103 82 65 55 83 77 103 132 160 178 263 257 350 464 492 530 512 493 517 546 475 378 329 307 308 335 340 378 454 430 396
277 202 341 203 212 249 228 115 115 65 34 48 55 80 81 58 74 212 140 155 115 129 167 240 275 300 365 440 452 441 418 363 324 281 251 234 265 308 332 340 373 395 382 348
93 105 134 242 225 146 20 92 113 86 71 114 75 81 78 86 138 90 104 129 141 169 252 268 278 302 314 295 288 281 252 238 223 220 231 241 243 269 289 296 304 276 273 277
162 129 143 115 179 200 67 51 94 121 93 61 59 48 39 67 61 94 97 105 121 170 246 264 274 252 219 204 216 220 203 219 215 221 217 214 229 291 307 316 295 305 401 457
144 125 46 28 73 54 107 124 130 67 68 49 63 29 76 64 82 74 65 88 149 182 234 264 265 225 185 195 210 213 200 196 191 206 247 273 281 278 297 322 377 425 454 441
151 121 85 64 80 107 137 23 84 252 97 77 65 88 62 93 76 86 99 131 166 199 237 273 313 260 197 181 164 200 262 307 302 280 308 350 402 402 390 448 480 460 389 388
68 93 75 154 70 56 143 81 109 136 126 97 61 61 65 81 107 119 156 186 214 228 251 330 394 359 293 252 285 336 375 373 412 484 531 541 577 615 649 600 524 495 450 415
62 79 43 63 44 18 33 72 51 92 159 112 76 99 119 114 123 141 164 177 196 209 333 431 490 506 468 479 472 407 408 481 577 663 679 680 652 615 633 600 508 482 472 354
74 50 86 32 20 63 28 32 2 38 61 34 60 52 45 78 133 173 176 192 241 367 501 571 616 751 811 859 896 863 752 767 797 823 777 713 650 573 561 549 544 425 316 310

GFSCGP_con_3kmhel_084.txt.gz
Helicity
120 122 116 115 77 12 -42 -7 38 84 71 99 82 66 124 223 301 266 223 239 193 133 70 79 108 74 84 112 84 123 222 230 250 230 232 122 72 16 28 47 23 -25 -71 52
134 69 30 64 57 0 -38 7 50 66 34 99 26 62 54 226 294 357 307 258 203 151 120 64 53 63 -1 17 21 17 39 54 84 129 90 -25 -69 -16 -23 -45 -62 -34 -40 -37
172 63 53 68 41 7 -17 27 81 55 -15 15 33 15 62 73 177 255 208 211 179 141 132 78 54 39 6 31 40 -2 -37 12 23 35 -21 -69 -9 -11 -114 -118 -132 -116 -98 -38
137 -57 3 63 77 34 36 36 12 25 52 -12 -9 -93 2 81 236 240 257 229 171 116 77 78 62 38 -1 -30 -6 -21 -15 -9 -18 -48 -84 -95 -121 -131 -182 -217 -216 -184 -167 -131
269 57 89 32 30 16 29 55 12 34 41 -11 -24 -46 -110 48 115 298 237 229 222 137 121 77 64 15 -65 -32 -31 -71 -49 -50 -70 -87 -91 -65 -85 -146 -150 -158 -138 -117 -83 -36
97 106 87 73 41 35 48 51 66 66 80 29 -16 1 -87 -29 135 253 208 188 277 264 170 82 21 18 -39 -50 -9 -31 -16 -22 -33 -43 -45 -28 -24 -52 -68 -39 -12 -3 12 37
112 6 40 74 80 -3 19 108 87 96 111 3 13 45 -45 49 10 252 256 253 266 276 265 185 184 147 76 59 33 19 37 39 29 31 25 11 -10 -14 17 37 63 83 96 88
163 104 68 94 92 118 70 108 160 76 117 37 36 47 -56 24 37 50 164 254 305 295 245 238 247 247 216 174 135 115 99 46 63 56 42 27 29 24 41 79 130 137 143 150
139 128 111 46 101 63 36 142 124 173 107 67 66 21 27 39 39 79 -5 158 232 261 273 272 269 276 253 263 267 289 188 116 88 103 71 69 66 88 107 131 183 208 176 177
144 103 54 57 89 24 83 124 166 152 144 109 -5 55 12 -31 43 -21 42 70 129 214 282 277 273 287 294 272 270 252 193 206 192 153 145 134 158 139 177 221 262 267 242 258
94 110 94 104 69 64 117 176 178 153 168 140 60 55 6 20 2 -13 11 58 80 114 194 241 279 340 319 358 330 312 238 157 148 204 198 185 175 209 241 312 292 332 335 314
133 82 50 41 84 104 151 117 155 191 200 189 110 39 42 41 27 17 -8 1 22 60 76 86 148 209 296 305 391 390 364 274 256 202 209 225 246 249 233 266 323 392 342 312
99 121 127 -3 25 66 118 140 135 239 250 168 134 70 89 53 34 57 6 -6 25 68 112 73 85 96 110 197 278 355 377 379 316 262 236 268 324 370 381 385 533 485 190 247
65 169 114 51 137 161 182 156 110 140 214 170 170 109 70 58 27 -19 10 -33 62 109 67 97 135 60 33 107 216 271 288 307 329 330 295 266 341 402 460 592 516 204 431 445
95 109 135 101 56 123 205 197 180 93 142 158 88 101 86 48 23 -9 -26 20 84 97 67 60 139 109 123 145 115 157 251 288 336 336 362 297 343 418 484 572 376 366 346 433
111 70 89 63 83 124 68 108 149 161 87 112 80 89 43 39 25 15 67 73 96 88 129 88 75 181 168 172 204 275 314 305 385 375 427 382 432 481 488 449 426 424 425 455
180 116 88 76 84 96 93 92 147 100 120 26 63 70 75 61 33 45 57 82 87 90 112 113 145 178 264 318 366 395 419 457 464 426 400 406 452 439 393 349 338 384 396 430
94 297 155 84 134 69 31 76 106 72 47 91 66 23 55 53 125 87 65 102 114 158 199 176 195 231 315 378 445 450 436 454 486 441 403 380 345 333 320 313 328 347 403 459
42 62 233 172 143 142 92 123 117 123 88 79 94 54 60 71 127 168 142 117 128 113 133 167 176 212 304 378 414 457 451 418 373 336 302 256 229 239 260 292 321 333 362 418
129 84 142 204 121 100 126 134 158 133 117 96 100 66 78 88 140 103 114 163 157 143 136 153 200 267 297 278 291 319 303 282 246 207 202 209 210 240 273 296 307 314 373 444
175 174 114 145 73 164 151 124 70 176 162 118 109 84 30 56 75 108 165 163 145 145 165 197 239 225 222 232 237 245 225 202 187 187 197 202 209 236 252 274 300 392 445 444
44 92 106 106 64 38 44 146 167 126 137 36 136 133 63 60 67 77 112 120 131 143 156 190 218 204 191 190 198 198 198 188 189 194 202 202 221 248 296 367 408 425 455 487
41 67 66 51 -14 3 47 50 229 215 175 120 116 89 71 155 97 82 79 115 143 133 155 177 196 189 159 161 176 218 209 217 234 270 292 323 384 419 438 421 410 420 429 455
65 101 79 40 12 6 27 31 24 34 53 138 95 116 79 97 102 111 112 129 163 182 192 206 237 257 303 251 221 223 266 331 391 445 469 495 525 572 578 531 498 500 489 520
53 79 19 29 0 23 54 93 41 44 18 12 97 113 18 61 72 98 140 155 214 264 301 374 456 479 464 490 481 463 472 494 512 514 514 551 576 596 664 712 670 632 627 470
45 46 88 23 16 9 13 27 -23 -8 31 99 96 105 80 47 136 133 176 246 288 379 471 563 571 649 660 746 727 647 560 532 511 527 535 561 617 647 672 739 708 677 574 482

GFSCGP_con_3kmhel_087.txt.gz
Helicity
186 301 162 193 181 117 81 104 96 -16 41 39 55 63 53 144 184 250 163 116 170 162 174 185 167 111 75 102 121 100 217 284 331 410 223 308 496 488 514 343 304 189 276 121
209 197 108 146 125 67 65 73 12 -40 29 -8 44 -3 11 106 142 239 235 140 136 166 158 147 119 91 33 86 116 121 136 184 316 312 255 413 440 540 173 263 203 259 92 -0
213 233 85 129 136 87 40 83 33 93 43 82 26 -8 -41 51 91 166 209 135 106 119 159 134 91 56 52 62 49 45 77 110 80 99 140 147 283 190 -0 30 83 64 36 36
139 48 77 112 83 120 48 35 29 90 76 53 44 -60 -37 25 58 111 146 168 138 109 88 120 107 67 34 68 63 60 72 55 14 37 8 42 14 -21 -85 -118 -68 -41 -39 -53
197 122 109 74 29 155 33 21 73 90 120 50 30 16 -93 49 -14 68 167 205 180 103 98 75 92 86 80 45 42 32 46 34 -6 -33 -12 4 -1 -66 -115 -164 -246 -172 -145 -113
103 135 72 99 9 107 24 91 103 96 162 94 30 61 -65 -5 24 42 101 150 209 176 88 13 42 78 91 61 30 28 33 3 -21 -51 -70 -104 -89 -96 -119 -186 -245 -217 -156 -99
130 96 102 95 101 77 139 148 173 171 194 86 67 42 7 23 45 23 94 159 170 212 164 118 103 69 104 158 93 55 40 12 -8 -38 -51 -90 -98 -92 -75 -98 -176 -200 -163 -116
135 83 64 107 109 125 138 178 262 162 130 82 76 19 -1 -12 44 28 65 112 155 147 167 132 148 120 95 121 144 98 70 42 22 -15 -40 -61 -85 -96 -112 -103 -91 -114 -119 -122
72 68 77 66 166 114 85 175 150 188 171 132 52 36 47 42 21 59 37 82 129 167 193 148 164 169 115 112 143 148 87 25 37 17 -24 -32 -48 -32 -41 -56 -53 -33 -20 -14
103 66 91 103 99 146 157 130 247 262 155 145 103 68 34 51 54 34 70 86 103 132 154 130 179 218 197 201 190 162 133 78 60 59 52 34 25 19 -5 -18 14 40 42 63
194 95 74 76 108 109 185 63 172 121 198 147 117 71 59 42 87 40 35 42 103 124 148 188 202 242 291 301 298 319 253 194 127 128 110 78 65 60 52 50 53 72 114 178
226 113 93 40 34 96 107 143 159 173 227 182 175 85 26 59 43 30 68 36 -13 35 118 209 205 231 286 312 373 406 401 355 271 168 202 180 146 122 128 144 169 198 278 342
144 236 104 77 38 -61 78 150 105 160 183 213 191 141 102 22 59 77 33 29 20 15 6 111 123 163 226 274 349 393 424 446 422 345 191 147 184 214 233 251 292 384 404 427
-23 108 140 142 106 39 75 99 150 114 172 163 169 162 122 86 55 40 47 38 47 10 27 91 91 128 154 186 270 322 365 429 442 429 374 274 263 339 313 285 344 398 467 414
-122 99 176 102 95 71 164 161 189 173 157 145 110 88 73 84 62 51 -1 24 -31 47 80 37 94 102 119 164 193 209 197 247 309 317 314 322 271 313 337 371 396 427 421 353
-179 137 232 187 139 100 84 137 109 165 177 190 124 84 111 75 86 76 27 31 29 58 108 82 72 104 82 135 219 233 236 252 297 283 282 354 385 388 372 367 367 381 370 366
-154 -77 181 112 176 99 138 72 121 121 100 202 151 80 52 69 69 26 15 44 49 93 83 59 81 97 89 139 187 205 260 330 343 361 357 358 379 391 392 358 311 315 307 276
-63 -88 53 99 172 132 59 36 61 79 78 132 184 131 84 40 64 74 18 56 71 82 86 117 126 120 144 181 258 311 322 304 319 344 333 322 280 244 253 264 259 248 289 293
18 -39 -46 40 108 114 50 24 54 130 118 75 95 124 76 36 106 104 109 91 75 91 110 161 154 160 149 193 262 317 332 316 286 275 272 245 236 241 235 230 249 282 334 350
12 -121 -5 48 108 80 35 44 76 148 66 78 85 76 45 94 154 90 88 125 167 206 196 200 198 172 173 198 231 230 229 224 224 221 222 212 211 208 206 206 236 266 320 367
45 38 -37 56 101 114 127 90 94 130 76 164 209 191 176 95 54 70 149 183 231 214 202 168 154 152 162 175 178 216 222 227 201 195 184 181 178 179 195 230 268 313 367 439
24 19 63 161 99 19 32 88 77 33 77 153 111 66 97 81 41 38 165 239 243 221 175 149 168 164 162 151 176 203 216 202 216 217 224 224 237 239 255 304 326 364 418 460
29 13 -54 65 9 17 49 67 52 125 138 113 100 69 46 87 101 164 184 211 192 167 162 157 167 197 195 163 158 198 205 238 290 348 340 332 352 362 365 369 386 422 436 441
54 48 61 57 42 43 49 31 18 21 134 226 94 98 56 107 149 250 245 220 200 185 200 217 266 274 261 241 264 247 259 263 289 304 313 308 333 371 399 394 408 429 455 473
27 55 76 71 47 24 -42 5 103 44 50 175 223 91 111 43 111 176 152 170 211 263 292 291 300 310 306 294 293 223 183 203 235 270 288 320 358 389 422 488 475 533 598 540
5 91 86 2 18 -18 -1 21 37 48 35 55 49 65 66 77 151 236 271 250 263 300 301 363 370 406 359 370 360 308 252 261 293 338 342 341 356 332 323 313 319 330 274 249

GFSCGP_con_3kmhel_090.txt.gz
Helicity
248 322 294 168 289 260 140 124 61 53 7 43 -9 -5 42 18 102 150 231 236 156 112 118 149 173 179 64 69 101 113 160 188 178 230 245 237 200 142 143 146 221 392 150 150
233 188 148 158 154 184 152 116 45 -10 -8 51 31 -43 -44 35 108 144 186 213 150 146 134 147 138 155 31 44 73 84 133 260 174 290 302 333 273 240 296 467 375 278 329 135
154 161 139 179 189 163 150 120 120 100 24 10 89 60 -6 22 23 -38 50 144 126 150 149 139 119 113 61 73 78 63 90 171 220 257 381 204 307 310 344 445 385 233 81 71
109 95 87 73 106 170 138 143 98 91 129 101 82 -2 10 -11 -7 -4 17 66 144 157 136 129 102 106 77 32 34 67 93 136 220 274 264 185 223 268 253 314 180 210 150 64
158 107 90 110 87 153 94 97 89 104 140 155 103 111 -12 29 -6 49 50 92 99 149 160 142 104 80 97 75 33 27 60 94 140 158 162 114 117 86 183 196 151 -64 -83 81
129 116 60 92 86 130 72 88 103 150 145 82 127 164 10 11 -3 1 -10 68 68 135 133 128 107 57 61 75 74 40 31 21 30 64 47 47 62 20 22 -14 -82 -145 -135 -108
154 113 133 87 96 118 105 153 205 188 189 154 113 183 77 19 77 60 30 56 74 111 164 148 159 144 79 60 68 74 56 27 15 7 8 32 36 43 45 -11 -91 -182 -189 -187
85 102 124 141 93 87 120 181 258 187 172 154 179 122 113 16 42 29 33 26 57 60 111 157 156 148 151 142 81 61 58 17 17 -10 -24 -25 -6 -25 -37 -64 -87 -126 -153 -175
157 101 91 121 156 123 163 164 163 164 115 86 91 152 113 44 22 20 42 39 60 51 96 153 163 170 171 125 133 123 96 70 50 21 -14 -35 -37 -42 -65 -98 -131 -150 -149 -114
180 52 126 98 149 137 139 135 178 266 163 105 111 130 119 46 57 50 41 33 30 39 54 84 148 201 208 198 178 158 133 120 118 97 47 1 -17 -18 -33 -48 -79 -93 -129 -110
199 138 113 142 149 163 169 124 176 142 175 135 28 38 118 70 64 40 38 26 -0 43 59 62 90 153 223 236 244 213 192 155 154 151 125 104 81 58 25 -9 -9 -2 -11 -14
101 155 58 69 49 65 138 158 128 185 221 189 151 152 138 -6 13 10 19 26 22 31 52 53 51 98 173 257 287 345 328 274 244 220 168 157 190 169 149 127 95 78 53 40
28 160 57 83 81 112 72 129 183 174 159 99 127 101 110 89 38 23 42 39 40 34 27 56 93 127 131 159 199 296 340 359 353 274 194 150 186 193 131 108 97 112 141 149
-17 37 73 81 189 218 234 73 138 167 188 141 110 131 141 86 61 35 37 32 46 43 33 62 89 103 120 145 163 177 198 223 288 325 277 184 187 243 213 188 187 212 262 213
24 29 51 102 139 144 174 241 136 160 193 164 101 119 113 89 68 50 44 70 47 51 77 66 73 63 138 146 139 152 163 195 223 216 211 213 224 237 225 228 234 254 220 232
101 -20 -113 64 68 157 174 124 170 160 250 179 151 104 97 87 97 94 40 59 59 53 28 47 76 93 142 191 161 167 168 197 239 234 207 155 158 184 229 263 280 285 252 261
118 130 -6 -58 94 78 137 91 107 202 152 150 139 79 97 104 60 66 58 24 30 27 54 59 65 87 86 119 120 154 195 233 259 247 238 255 222 208 228 266 270 245 260 284
111 128 99 35 48 75 91 61 108 141 166 137 108 102 105 88 138 116 65 73 82 71 44 39 114 111 103 115 143 191 202 250 285 305 293 264 253 238 224 212 195 224 233 221
84 70 28 -160 -8 35 199 159 89 110 64 91 114 145 103 67 93 99 59 73 58 67 91 162 175 142 153 155 163 178 189 236 251 238 199 164 165 180 203 197 199 198 220 254
44 41 24 -134 -46 -45 -18 101 169 77 42 52 64 102 161 196 197 128 9 88 104 154 194 233 197 162 191 161 132 168 199 196 200 191 165 170 182 208 213 216 236 241 244 262
-32 11 -68 -133 -32 -75 -43 17 140 87 44 24 89 43 175 224 144 73 38 137 178 228 246 246 210 211 203 159 172 217 202 195 181 213 237 249 247 257 244 245 236 233 266 318
-28 30 12 59 42 -20 -35 13 42 84 103 27 102 59 141 145 43 50 63 122 166 209 262 257 272 256 211 189 198 232 242 204 232 249 243 236 219 185 186 212 220 253 284 342
-19 13 -0 -21 48 61 -15 24 28 4 32 147 203 89 30 111 74 64 -7 146 237 285 294 303 277 270 258 227 182 196 147 161 187 208 192 186 212 224 217 206 205 230 246 272
28 9 18 61 73 14 46 16 6 82 29 43 188 128 30 71 60 82 282 348 366 346 315 246 254 290 294 228 188 142 106 148 198 216 234 235 249 274 296 303 304 313 291 302
40 16 49 20 47 77 52 -3 -22 2 -56 21 65 48 156 95 155 131 218 277 249 272 299 266 247 317 297 268 269 216 208 200 235 242 232 249 277 296 333 368 338 320 353 291
76 53 26 26 44 69 2 -17 -28 24 11 41 61 55 139 100 187 204 229 258 311 217 267 302 269 319 327 337 299 261 225 225 240 264 267 257 262 260 244 223 230 281 249 241

GFSCGP_con_3kmhel_093.txt.gz
Helicity
196 227 279 169 156 187 109 96 90 83 64 112 111 75 -4 -1 28 39 57 109 112 109 90 123 134 156 97 48 56 54 92 80 136 118 188 253 295 209 180 181 188 171 172 134
157 132 176 120 116 101 70 64 61 33 22 55 93 107 12 -14 9 23 30 92 111 97 103 119 116 131 95 13 25 60 80 128 102 130 165 179 167 165 174 137 142 143 148 194
134 80 62 126 133 98 69 63 67 61 64 26 72 77 81 62 58 29 28 50 72 96 109 113 123 110 106 74 32 70 96 109 124 133 223 305 328 248 116 144 247 222 251 215
76 84 90 66 81 120 73 87 81 57 73 56 126 36 46 37 14 -2 50 91 67 80 65 92 104 134 82 97 57 39 68 123 170 144 140 183 323 222 144 174 224 316 291 284
139 74 36 99 113 79 63 77 58 29 69 84 82 85 46 40 41 41 33 26 61 66 82 87 80 85 74 63 90 75 68 75 107 121 137 178 182 174 283 243 220 309 309 292
122 128 65 82 74 98 94 45 69 113 126 80 99 112 8 46 43 24 55 21 46 79 62 57 67 76 84 57 58 76 96 101 120 156 148 98 98 130 196 189 194 337 296 232
118 127 163 113 113 98 111 97 125 117 173 119 89 95 71 47 58 50 -4 34 48 72 83 81 86 89 81 78 71 68 66 72 82 94 111 115 59 5 66 98 116 183 170 118
77 86 90 149 123 125 70 109 211 157 124 94 143 96 52 3 2 9 16 18 54 60 80 80 95 80 89 83 71 71 72 59 55 55 37 36 14 -24 -20 6 20 48 74 66
120 77 131 80 143 135 121 130 76 126 89 76 89 125 103 56 27 35 34 -3 29 52 55 84 86 70 94 119 103 74 64 53 53 44 34 28 -8 -46 -62 -66 -63 -72 -83 -77
170 67 82 78 101 99 140 89 155 184 126 87 114 99 114 50 2 7 67 35 14 46 17 44 39 43 49 103 129 104 89 68 56 42 40 32 36 24 1 -28 -40 -65 -94 -89
155 58 144 125 95 84 132 138 171 168 166 91 31 50 63 38 -2 26 53 28 22 31 32 34 13 -2 25 70 111 126 119 100 78 62 61 55 52 48 57 47 23 16 -14 -28
100 80 32 98 87 75 109 148 108 148 167 139 110 52 135 22 35 9 20 20 15 17 44 42 19 21 55 83 121 138 139 123 116 118 98 72 75 94 108 103 101 91 79 74
142 109 41 25 102 158 135 172 228 169 167 75 92 111 8 69 44 -2 12 22 48 27 21 57 41 53 66 90 113 135 171 160 160 146 137 118 132 172 115 136 110 118 94 79
110 79 72 85 104 103 168 217 205 170 192 126 83 84 151 111 51 15 37 32 33 49 40 35 38 53 52 66 68 103 130 143 153 152 143 143 123 149 117 126 113 139 109 84
70 55 50 35 65 107 56 68 214 175 76 136 104 64 58 67 59 19 26 22 29 23 31 25 28 55 52 67 63 82 68 102 135 134 148 144 109 109 137 154 142 127 115 114
188 134 78 56 29 23 73 72 106 57 94 102 81 69 64 18 60 48 12 14 49 29 11 30 46 50 74 92 94 89 77 78 102 109 128 103 115 117 109 112 115 111 98 77
77 81 99 29 1 -35 51 49 57 19 48 82 101 113 142 115 85 66 52 51 32 42 21 17 18 33 59 80 70 71 90 91 93 91 87 95 95 89 101 105 97 83 88 106
31 6 43 101 158 116 79 181 77 79 60 38 92 136 141 95 106 81 85 67 55 46 1 22 75 67 99 115 124 114 98 62 79 93 116 121 114 122 129 142 153 180 209 227
105 99 49 70 89 89 92 119 126 187 105 83 40 64 80 106 79 33 21 69 105 46 26 63 111 129 148 175 159 159 160 166 175 159 175 167 143 176 224 241 234 233 258 256
48 133 154 101 84 55 -1 63 71 8 65 187 156 144 62 76 57 21 2 62 87 96 68 128 184 208 239 210 206 249 244 230 229 238 232 222 218 249 265 273 281 299 297 310
20 103 100 34 57 -33 -2 2 65 58 77 286 219 224 108 52 69 97 52 57 -11 88 179 241 289 330 322 307 285 296 280 249 212 215 227 228 217 218 220 235 235 236 258 287
16 50 74 8 -18 14 38 15 -18 -88 49 281 189 141 196 103 106 116 153 196 91 164 239 296 348 367 321 243 236 232 235 184 227 267 304 309 303 269 244 264 261 274 294 334
4 90 6 -18 -7 12 141 60 50 37 38 199 121 90 131 132 147 145 168 151 155 209 297 327 400 467 435 256 156 221 200 256 257 292 302 327 326 301 282 275 277 275 270 280
9 -28 -21 -38 -16 -36 137 137 46 54 21 -54 3 8 -11 103 111 192 283 55 162 179 209 221 316 398 462 433 323 286 246 258 237 260 309 275 275 297 322 312 307 315 304 272
28 28 -1 -20 -29 -30 34 20 98 134 16 -13 25 15 -13 13 180 190 297 217 212 215 176 200 241 319 283 257 287 255 201 208 271 282 257 249 255 275 309 351 310 307 337 257
90 14 16 -11 48 -5 1 17 101 71 36 23 24 35 76 71 108 177 252 265 278 289 297 325 236 214 251 373 318 251 217 233 242 267 235 211 210 217 209 208 243 323 282 262

GFSCGP_con_3kmhel_096.txt.gz
Helicity
67 145 144 114 96 34 88 90 40 38 105 87 50 24 38 5 28 26 24 23 30 35 87 100 112 117 150 44 15 47 62 50 77 143 311 433 523 426 569 658 408 275 195 112
81 53 69 58 31 47 61 52 55 37 58 69 40 41 47 26 25 48 25 21 17 38 94 85 90 104 110 60 15 52 66 53 74 129 152 322 327 445 430 320 232 222 217 125
47 45 4 2 33 69 56 54 43 32 51 42 48 37 13 35 87 89 51 18 14 26 85 82 92 92 87 89 30 55 80 79 47 98 151 212 289 177 191 149 236 200 205 69
105 35 57 17 16 24 53 37 27 54 56 76 117 51 70 41 4 23 20 25 11 21 68 84 81 90 81 83 79 63 101 85 35 53 105 149 151 186 170 177 148 172 160 179
163 97 25 38 30 13 33 40 39 57 74 73 89 75 11 43 -5 9 13 2 23 30 44 81 63 75 79 83 84 86 77 100 127 85 119 160 192 213 162 132 116 137 179 166
103 124 161 88 44 26 50 27 28 53 78 76 63 104 22 24 7 23 37 53 14 15 50 96 67 78 77 75 80 78 97 89 130 109 69 64 119 209 159 161 124 128 218 205
51 56 86 55 93 79 45 48 73 52 90 79 91 74 43 55 4 13 34 -7 -10 19 73 102 91 83 83 77 60 58 68 82 70 64 57 47 79 74 90 105 149 130 147 180
54 40 23 56 68 106 35 27 101 96 54 58 92 85 52 18 -5 -7 13 45 33 26 57 56 72 71 90 78 71 50 52 45 63 41 27 48 42 35 31 46 35 94 179 173
119 54 76 -22 8 64 72 81 21 77 93 141 83 60 81 33 9 4 9 21 9 28 45 39 63 44 81 70 74 57 54 38 42 49 19 11 3 7 16 2 9 33 69 95
150 104 93 51 19 11 116 78 115 104 87 85 65 58 88 37 -5 -21 15 28 24 24 37 39 54 63 39 65 71 52 45 58 44 46 54 49 32 -2 -8 -13 20 22 2 -0
136 102 119 106 48 43 50 112 179 178 81 80 89 68 55 -17 12 39 64 31 39 22 38 40 60 84 43 71 91 88 41 54 64 55 36 34 43 30 16 23 16 22 21 30
126 95 80 112 109 126 188 119 51 100 102 71 66 69 26 -31 -16 9 83 28 43 34 40 20 45 85 72 67 111 114 100 69 58 62 59 44 30 35 33 29 26 32 38 34
141 58 61 48 80 87 110 133 145 197 184 112 91 128 43 63 36 53 39 55 18 21 34 51 51 52 43 59 87 113 115 96 78 62 66 68 63 57 60 47 33 43 48 43
143 117 122 139 173 180 171 153 142 110 145 102 77 75 85 56 -14 -1 92 51 52 24 32 38 38 35 32 47 62 83 99 102 96 87 85 83 85 82 63 65 59 59 74 63
124 74 79 93 111 119 85 81 153 113 72 74 56 82 83 31 63 64 48 41 48 14 23 37 43 31 41 46 38 30 59 89 78 69 55 49 64 68 68 71 69 41 45 78
104 109 127 41 21 40 52 61 40 44 68 42 -0 1 30 37 30 25 32 36 91 24 36 36 31 18 38 54 34 38 69 44 30 21 18 16 28 36 43 39 61 66 79 84
115 93 56 20 29 32 48 37 50 45 41 50 31 19 7 15 19 -12 35 36 43 27 32 33 1 28 27 38 64 49 81 103 67 44 34 41 50 56 66 65 65 75 95 100
48 36 61 76 64 22 32 62 21 47 72 82 42 43 45 45 -1 5 26 47 57 70 53 79 57 7 50 65 80 99 103 114 111 84 84 90 99 103 107 111 125 194 272 316
13 26 42 44 10 16 99 25 16 46 110 53 20 48 39 62 43 62 34 53 61 89 39 19 96 63 120 99 121 150 168 177 200 226 195 197 194 235 300 336 326 323 364 392
4 25 37 36 56 64 30 145 83 58 146 100 109 239 221 218 116 76 48 69 49 95 50 24 133 154 171 221 223 224 330 346 355 298 319 319 302 346 384 366 367 388 396 393
59 69 34 23 27 43 73 61 59 64 130 79 102 184 294 204 141 141 126 155 131 143 13 62 164 234 274 315 407 445 488 462 400 399 406 403 421 410 359 358 346 335 339 350
10 4 21 29 26 45 53 15 114 114 176 116 61 177 302 201 85 131 149 180 193 266 198 198 288 349 313 385 395 474 530 387 396 386 434 433 384 328 311 328 318 299 284 309
30 18 19 19 33 -3 15 11 69 143 142 171 22 353 210 137 98 138 133 157 234 318 348 422 526 565 581 479 429 427 335 353 361 394 368 416 404 372 375 357 317 301 292 284
13 -27 12 5 -13 -7 -10 51 141 51 67 41 -30 134 140 52 121 124 118 84 117 206 278 324 376 402 514 500 442 399 312 309 337 352 362 337 318 371 371 353 350 351 334 303
32 2 -3 10 13 -0 -29 -18 34 37 81 17 25 -44 -5 45 96 137 144 168 194 229 225 283 332 327 300 287 321 316 302 319 381 352 287 260 288 309 356 413 358 361 423 335
44 30 -1 15 -0 -4 11 12 25 81 93 65 13 -18 53 36 67 126 175 279 394 432 258 279 276 226 225 254 283 288 278 275 269 265 193 194 171 195 223 267 364 447 373 370

GFSCGP_con_3kmhel_099.txt.gz
Helicity
68 87 160 110 85 67 67 57 26 55 25 54 38 17 22 20 7 13 35 27 29 53 93 157 127 142 188 164 142 71 12 40 56 57 70 114 165 175 312 414 400 514 473 346
147 102 135 22 24 43 28 47 71 34 49 38 28 32 20 6 18 7 -10 2 43 35 125 133 136 112 136 135 162 97 34 38 81 105 110 151 211 286 294 566 462 469 460 393
100 20 52 42 73 36 30 43 69 65 36 32 37 37 26 -14 -7 22 -9 12 -18 23 108 132 117 97 120 129 154 139 82 74 92 85 105 142 621 563 419 448 470 519 577 529
70 45 59 98 88 20 37 21 50 53 56 70 19 22 31 18 16 28 32 43 49 16 42 150 112 91 105 106 123 149 123 105 86 67 52 16 168 393 453 487 517 487 386 199
71 65 78 66 84 51 40 34 39 61 59 66 69 77 41 17 22 3 28 11 4 58 70 114 85 81 94 101 98 125 119 107 100 47 33 41 20 116 128 162 188 163 127 137
7 65 135 139 80 32 28 31 28 42 60 79 63 81 54 25 18 4 15 44 53 70 95 89 98 93 99 100 79 105 128 93 135 168 108 98 84 102 115 146 190 226 256 212
-13 -2 31 129 111 101 74 44 101 108 123 97 23 47 50 48 12 47 37 24 77 76 72 94 134 103 99 106 77 76 115 88 99 148 145 124 107 133 147 114 42 100 167 180
65 23 -22 59 85 78 66 63 167 186 122 90 44 83 32 7 26 8 23 45 35 65 46 80 123 83 92 97 93 59 75 85 77 70 93 112 74 88 83 52 67 114 68 142
140 58 72 10 -13 51 41 50 24 107 140 150 95 53 28 70 34 24 27 2 26 61 44 62 87 82 83 92 74 76 78 65 61 68 60 76 61 48 74 43 67 45 21 37
128 92 33 65 9 14 34 37 32 51 133 200 138 41 24 5 15 18 -4 7 4 47 57 49 69 87 79 81 67 49 62 80 67 48 52 46 36 50 45 50 55 46 29 41
168 89 81 68 41 -11 47 46 72 47 41 83 99 91 65 60 66 81 42 45 21 45 58 51 67 92 75 85 85 59 39 72 75 62 39 26 16 13 21 26 34 34 43 64
145 185 95 80 48 106 151 20 20 68 39 51 48 62 6 41 68 84 51 3 44 38 40 54 71 101 111 99 87 79 67 58 78 74 70 40 20 14 15 6 7 27 44 53
165 87 65 31 42 26 72 50 37 30 31 50 71 43 35 4 17 32 13 43 8 21 27 44 50 80 120 104 95 93 99 88 89 84 78 70 50 34 28 32 29 38 30 38
165 98 143 118 123 229 159 101 125 88 62 38 32 44 26 15 26 37 94 81 57 1 21 25 41 60 77 80 84 84 97 92 98 94 86 82 67 49 41 38 47 49 66 59
74 56 75 64 85 86 157 182 133 102 81 84 80 89 88 72 68 30 58 61 74 21 18 28 32 38 51 55 64 65 81 87 86 108 95 95 79 65 55 59 62 63 74 68
36 54 96 78 65 89 102 66 48 60 65 60 40 41 39 36 55 105 87 105 114 52 29 15 29 41 59 51 47 50 46 77 79 70 73 72 72 63 69 75 72 67 63 64
105 57 61 40 24 21 54 39 40 33 39 30 29 21 22 54 33 22 115 100 70 86 55 26 33 38 47 61 69 73 50 67 84 53 40 42 54 59 65 64 64 64 74 111
35 47 66 78 116 63 16 2 16 86 74 71 39 19 26 24 12 4 15 37 55 9 34 67 66 83 72 44 58 68 62 91 140 99 82 83 78 85 92 142 325 405 403 412
-3 19 51 68 68 78 117 93 64 46 92 34 84 134 181 149 96 18 0 -8 1 103 123 114 121 131 104 92 69 47 106 138 166 173 156 166 180 370 472 498 504 505 534 548
3 19 33 35 61 47 37 136 107 123 99 169 181 182 146 128 89 32 55 62 107 144 95 62 71 63 109 141 129 150 246 363 492 571 564 540 537 491 510 505 508 513 537 514
39 42 16 8 35 25 20 68 56 92 139 195 220 185 93 96 120 191 26 118 171 167 119 127 125 116 254 375 444 559 623 649 549 540 587 519 526 524 481 477 475 487 482 487
62 33 41 31 37 32 37 48 44 131 74 98 141 117 52 49 171 117 68 76 59 73 90 79 108 191 219 272 387 541 646 565 654 651 634 551 549 533 484 480 466 443 425 428
27 17 18 15 17 42 32 33 1 42 75 190 186 218 20 104 168 66 99 70 93 120 223 285 353 432 426 383 434 605 598 608 582 668 620 562 535 484 450 411 379 365 347 339
64 27 29 34 9 -3 -20 29 -26 30 148 300 168 129 19 157 187 132 113 118 123 137 158 234 329 430 495 553 624 660 616 524 595 744 589 438 444 427 459 464 405 353 301 275
48 36 33 12 8 8 -19 -83 -77 24 135 95 31 100 47 50 52 103 73 146 134 133 147 223 349 477 511 504 570 449 468 416 495 539 426 400 453 494 522 590 411 390 414 303
53 30 19 21 -1 -26 12 11 7 -3 24 23 8 -11 12 19 62 109 166 196 199 196 228 296 359 419 428 434 420 334 307 270 258 335 332 306 284 332 294 268 319 417 394 432

GFSCGP_con_3kmhel_102.txt.gz
Helicity
96 136 156 110 77 76 56 105 114 57 7 -15 20 29 30 5 13 36 39 37 74 71 136 229 239 312 293 217 172 110 89 83 73 75 62 60 97 125 209 308 270 345 234 244
65 146 81 41 16 54 62 106 55 31 66 46 49 21 18 37 26 52 39 32 28 55 236 319 319 295 268 163 107 74 83 65 62 57 77 116 134 126 166 271 316 372 329 316
53 64 33 49 35 63 50 31 58 9 101 99 66 61 31 10 28 23 19 48 37 51 174 305 292 214 257 138 99 76 108 92 71 90 53 56 91 100 131 160 338 451 411 411
86 54 51 39 66 55 40 24 99 47 31 124 75 83 46 3 -10 -5 104 66 27 66 44 221 257 199 221 138 99 83 112 133 77 67 65 42 68 177 292 182 295 478 420 397
82 61 50 63 47 40 44 39 89 98 49 51 68 119 47 44 47 49 29 68 75 68 111 236 300 214 165 164 115 81 136 142 106 79 84 58 245 237 265 325 493 426 389 460
49 17 17 71 51 67 37 106 38 91 59 91 69 92 78 52 32 -0 -15 20 64 34 148 220 274 204 152 185 125 99 129 114 113 79 106 17 56 170 205 214 349 370 491 457
31 37 15 13 55 73 153 133 40 35 123 38 47 61 75 11 8 -10 18 79 102 117 148 218 313 218 173 194 162 129 83 106 118 110 116 102 61 55 106 126 152 260 276 298
111 93 7 51 -1 24 33 132 148 95 85 106 110 52 32 -2 11 49 61 46 69 103 170 185 209 218 171 182 139 108 83 105 112 88 106 86 84 44 80 135 133 97 98 130
184 40 92 91 52 33 4 77 61 36 53 83 59 134 103 16 95 45 55 41 95 68 128 140 176 236 179 154 124 76 100 45 90 92 68 52 60 61 104 53 111 125 207 206
124 121 122 27 37 20 13 39 62 91 61 46 39 197 66 135 155 68 54 36 19 64 136 134 143 224 170 144 143 67 98 75 61 67 67 65 50 32 33 69 83 84 82 71
212 196 135 151 19 13 34 32 80 50 19 68 57 39 52 25 5 -1 83 131 76 7 119 153 138 218 155 156 154 117 67 102 91 73 57 78 45 29 45 40 42 56 50 36
210 243 206 98 37 70 143 37 44 65 47 47 11 48 -9 80 181 115 99 57 93 116 54 122 129 206 169 176 164 131 70 98 122 114 88 57 31 50 47 35 41 26 41 53
127 122 40 41 74 54 55 45 48 5 10 42 83 42 112 23 68 40 43 93 173 21 25 53 143 217 189 168 165 135 96 94 139 132 130 96 62 45 58 40 40 55 49 58
123 124 151 103 98 78 169 194 144 15 99 10 51 45 88 20 182 72 32 52 58 29 54 35 82 156 162 150 158 148 124 109 157 150 148 137 120 82 67 65 57 63 60 50
67 44 107 171 117 106 154 167 237 198 68 19 40 74 75 37 14 102 110 99 93 94 36 13 50 71 138 167 153 123 153 130 142 154 160 142 135 92 94 104 98 89 93 80
36 -9 18 100 100 87 55 50 140 241 204 144 171 101 52 22 24 31 56 47 152 155 63 47 17 68 92 144 169 131 151 164 127 137 155 141 152 135 104 104 108 124 116 104
96 39 3 8 42 59 15 34 39 137 124 86 42 39 40 75 51 29 24 80 76 47 86 116 35 32 112 139 161 131 138 183 123 92 113 108 121 117 117 115 112 118 201 343
-9 52 50 39 55 66 66 65 -3 -24 -19 -10 -9 -16 24 33 23 33 42 17 54 4 47 50 55 134 53 129 135 145 151 172 138 76 85 109 106 94 94 208 431 462 479 476
10 30 56 50 62 69 102 62 86 109 135 195 240 259 248 193 173 97 146 155 99 67 42 77 154 304 181 150 156 150 151 178 154 95 129 110 164 452 532 540 548 552 623 605
-21 35 46 49 21 -4 73 94 67 71 99 139 191 230 301 198 192 138 -9 25 135 193 371 228 152 181 253 276 260 185 256 331 441 518 624 739 707 654 629 612 616 627 658 676
39 15 -1 -2 10 64 91 36 30 95 94 87 139 119 130 317 160 48 65 -33 21 29 88 189 273 276 250 264 445 626 604 693 536 630 694 784 811 747 641 663 618 618 654 686
-6 14 19 18 23 35 43 67 59 65 64 24 55 103 174 98 103 43 23 -96 -167 -44 69 163 172 224 239 206 280 524 691 759 780 789 809 821 782 676 663 626 580 571 537 573
36 5 44 35 20 38 73 45 21 16 -14 74 54 141 137 52 39 30 44 20 -61 -52 77 116 111 167 243 284 294 492 555 676 768 847 816 829 776 673 759 734 542 521 463 408
33 23 14 -33 22 -10 -16 8 24 13 25 111 127 138 86 108 35 82 80 53 88 87 83 108 129 171 195 276 380 503 583 685 793 867 896 926 977 890 799 766 617 499 402 326
107 58 68 44 64 60 56 64 24 -46 6 128 131 72 85 114 88 121 161 110 117 147 147 137 182 235 247 303 414 458 542 681 852 843 819 733 655 609 624 730 537 474 417 373
71 81 57 14 -6 -10 -1 -4 -28 -70 -20 40 17 11 83 56 82 79 136 120 156 170 249 269 226 262 294 346 392 426 440 495 577 593 533 534 505 604 451 422 517 578 508 363

GFSCGP_con_3kmhel_105.txt.gz
Helicity
82 176 214 121 194 160 133 110 102 68 50 83 103 12 9 -84 143 34 57 76 115 111 267 568 572 439 439 363 324 254 185 96 90 75 62 72 105 124 78 60 143 171 281 315
84 170 124 76 86 107 107 93 104 95 133 92 48 -34 -39 2 52 85 22 31 57 89 390 534 555 413 356 269 243 221 141 124 57 66 68 89 96 101 136 158 178 217 267 309
95 171 62 104 71 86 77 123 156 122 70 108 90 6 -37 30 89 51 38 23 61 34 236 449 444 361 289 216 211 196 117 121 61 52 77 80 97 141 79 159 284 230 294 280
118 45 47 41 90 144 145 146 85 84 100 116 80 -32 3 36 151 159 21 19 34 83 258 382 348 260 238 165 182 184 149 127 77 87 69 44 43 79 131 -46 234 324 352 233
165 124 106 89 69 99 134 88 115 125 135 105 45 18 -58 -43 87 14 -8 37 49 77 343 287 243 289 243 182 191 172 147 131 125 82 44 17 64 86 79 -6 18 342 303 252
42 48 89 112 92 105 109 117 107 168 164 126 51 20 -58 9 55 74 59 63 14 113 342 403 378 302 278 165 175 163 141 110 143 101 93 85 105 129 115 85 94 220 313 323
70 52 61 60 46 26 163 193 207 303 228 132 67 16 -10 14 83 28 33 -3 -15 219 360 440 398 335 266 153 154 153 128 106 123 86 108 120 73 105 125 171 108 256 508 382
131 140 109 11 132 128 171 170 234 259 200 8 22 45 -18 -1 32 -16 30 23 138 208 296 293 263 275 244 175 168 150 116 95 110 95 79 110 75 63 83 171 215 268 262 450
170 186 155 34 105 135 70 163 108 128 92 -22 -2 5 -38 22 19 69 50 43 72 137 194 227 244 274 199 193 169 159 107 69 82 107 83 81 111 79 59 67 68 89 198 283
206 234 158 118 89 126 98 133 104 125 102 21 -10 18 -30 42 105 323 93 256 125 147 233 259 277 277 223 187 166 158 84 59 48 83 100 79 65 85 92 94 92 84 89 91
169 216 162 145 86 22 106 108 88 119 107 77 15 20 16 -75 87 131 383 157 91 79 220 275 280 298 278 190 157 142 76 65 56 24 57 94 86 79 103 78 68 90 90 90
94 100 97 -35 88 74 30 -6 86 91 73 62 28 66 21 -80 -51 52 143 173 199 106 58 267 267 316 282 203 143 143 105 75 68 41 18 54 70 92 80 72 85 102 84 71
90 190 110 18 -54 24 51 47 91 108 46 3 4 32 56 20 -4 56 151 241 155 62 111 51 279 314 290 237 167 134 128 92 78 79 63 64 47 64 64 60 60 75 79 82
92 165 164 87 41 97 123 197 4 -72 133 19 -43 -84 30 -42 -11 6 270 218 70 146 -3 124 144 321 304 272 214 166 119 112 125 110 107 84 70 65 68 53 41 42 55 62
86 90 66 9 0 -20 63 174 226 42 35 -67 -21 -76 39 -19 -50 -77 88 305 27 27 26 32 24 99 353 283 230 178 144 162 183 140 145 106 100 94 98 95 84 60 68 68
138 126 73 23 32 27 -36 39 133 137 81 -2 64 52 135 -5 -10 3 -15 -9 -30 54 37 69 5 -1 43 326 273 233 174 168 223 189 170 131 107 100 123 100 97 115 109 99
96 97 61 24 15 111 -57 -78 -16 81 91 44 -3 17 73 42 64 9 -20 2 41 30 0 91 3 58 64 30 329 261 237 161 199 211 180 159 131 100 90 93 86 90 246 319
76 75 48 -29 7 39 19 45 -10 -33 1 44 72 121 142 94 48 69 96 58 59 112 109 240 261 45 160 117 174 347 259 189 184 234 215 169 150 121 122 239 351 383 416 428
64 62 28 -22 54 13 35 44 125 73 109 173 158 208 190 246 131 110 60 44 83 79 121 135 220 191 224 313 405 161 250 234 182 163 196 180 191 424 484 500 493 482 548 566
39 23 66 29 26 -6 30 65 118 116 129 105 80 140 178 232 135 151 98 16 68 58 70 67 105 141 274 337 229 338 266 343 384 367 442 541 557 601 628 662 648 636 648 642
99 15 -31 28 25 -7 35 -24 48 78 78 31 61 51 61 102 82 113 -38 -90 -45 -35 -25 16 0 61 112 271 362 575 652 671 544 517 523 594 627 680 659 705 698 732 761 759
158 61 -36 28 17 -22 24 33 17 -2 9 -21 -7 -7 11 48 78 -25 -88 -114 -69 -40 -72 -25 -18 24 70 105 248 519 613 568 609 653 731 760 813 800 806 782 644 686 758 878
-8 -19 -16 -52 -29 10 17 49 40 7 -31 -30 34 81 38 -1 25 -8 -84 -131 -106 -47 -45 -11 26 48 64 111 160 315 438 493 621 696 778 874 937 991 1009 956 902 872 884 804
12 85 -53 -69 4 23 8 64 29 -11 -37 -58 46 48 12 49 62 54 -7 -83 -56 -45 -17 29 74 118 166 175 205 282 375 499 662 784 849 929 996 1039 1038 963 880 840 781 725
106 97 -4 1 10 -18 -22 -6 11 -19 -49 -43 18 61 9 76 138 123 72 87 120 57 18 69 114 165 208 250 316 337 404 515 696 795 880 961 1065 1054 1092 1058 826 811 768 473
-23 12 22 12 1 43 92 90 39 -13 28 89 76 85 48 95 66 36 48 60 91 155 223 218 204 155 161 200 266 346 422 492 590 700 768 825 877 924 933 1078 1290 814 522 437